GFSGBSN_250_spd_000.txt.gz
Wind_Speed
8 11 14 17 21 19 21 23 23 24 24 25 26 28 28 28 28 30 31 30 32 36 42 41 44 50 47 54 61 62 66 69 73 61 64 61 73 77 80 59 41 37 22 21 19 15 12
10 14 18 24 25 22 25 26 27 25 24 23 21 22 21 21 23 25 26 27 28 29 29 30 33 36 34 41 45 52 54 65 70 69 75 53 48 25 38 28 21 12 9 7 3 1 6
14 19 27 30 28 27 26 26 26 27 27 27 23 23 24 23 22 23 21 21 23 23 24 26 26 26 28 27 34 40 37 34 34 31 20 17 8 13 12 10 6 4 9 10 8 15 18
24 24 33 32 29 34 32 32 31 31 29 26 26 26 24 21 17 15 17 20 19 16 16 15 12 12 13 16 17 19 17 13 13 9 7 1 1 1 2 4 8 9 12 16 19 19 19
30 29 30 31 25 31 29 31 28 28 28 24 21 17 16 14 17 16 16 15 13 10 7 7 8 9 7 9 9 10 11 9 3 3 2 3 3 2 2 7 6 6 10 13 12 12 11
32 32 30 35 27 31 32 28 24 24 21 21 16 15 13 13 16 18 19 18 11 6 4 4 4 5 6 7 8 9 9 5 1 2 3 3 3 3 4 7 7 7 6 9 9 8 4
31 27 34 31 31 29 26 25 21 18 18 15 17 16 20 21 22 21 19 13 7 4 4 5 5 5 7 8 9 12 9 4 4 2 1 6 6 3 2 4 5 7 11 12 11 8 7
28 28 34 31 33 31 28 20 19 17 16 15 20 24 24 21 19 18 14 9 5 3 4 5 7 9 8 7 9 11 10 7 8 6 4 9 8 7 7 9 10 11 10 10 10 11 13
28 30 32 31 34 28 25 21 16 17 15 24 27 25 21 20 19 15 13 9 5 6 7 8 7 9 13 11 10 12 12 13 11 9 7 12 11 10 10 10 9 12 13 13 15 15 14
32 37 30 33 30 28 25 23 20 19 25 29 27 20 18 14 12 9 6 6 7 8 11 10 12 13 16 16 12 13 15 16 16 14 13 11 14 13 11 11 12 13 15 20 21 22 21
39 37 35 31 30 29 24 21 20 18 28 28 22 14 13 12 10 8 8 9 10 10 10 11 14 17 18 18 16 17 18 21 20 16 14 14 12 14 17 15 17 20 21 21 22 25 25
43 42 37 33 33 29 26 27 24 21 28 25 17 13 13 12 11 9 9 9 8 10 12 14 15 16 16 17 19 20 21 22 23 19 17 16 18 17 15 16 18 20 19 20 21 25 29
43 40 34 37 37 32 31 25 22 27 27 22 16 14 14 12 10 9 8 8 9 11 12 13 14 15 17 19 18 21 23 21 24 25 20 20 21 20 16 18 18 19 22 24 23 26 28
49 45 43 40 36 35 31 23 26 25 24 22 17 15 13 12 11 10 10 10 12 11 11 13 15 16 19 19 18 16 22 21 22 26 25 22 22 22 19 17 18 20 23 26 26 25 31
47 44 45 43 38 35 28 30 29 27 23 19 15 14 14 13 10 11 12 10 12 13 14 15 14 16 20 15 15 18 19 19 21 25 26 22 21 21 20 22 22 24 26 26 28 28 29
45 44 48 45 40 34 34 33 31 27 23 19 14 14 14 10 10 11 10 10 11 13 14 15 14 14 18 15 14 16 19 20 22 24 23 23 22 23 26 26 28 32 34 31 30 29 31
48 46 43 40 38 38 37 34 33 28 25 19 16 15 15 12 10 11 12 11 12 12 13 13 13 13 17 16 13 12 10 14 19 26 24 26 27 26 25 27 33 37 38 37 40 44 47
48 46 43 41 40 38 38 37 35 31 26 21 19 17 17 14 13 12 12 13 13 14 15 15 13 13 14 15 15 13 12 11 15 23 28 29 32 31 30 34 41 48 48 43 40 38 40
51 48 45 43 41 39 39 39 36 31 28 25 21 20 19 20 18 16 15 16 14 14 15 13 12 12 12 14 14 14 13 13 16 20 25 31 37 38 37 42 44 51 51 39 35 38 42
54 52 49 46 44 41 40 39 38 35 32 30 27 24 24 24 23 21 20 20 19 17 16 15 15 14 13 15 14 13 13 13 13 15 21 28 34 37 38 36 30 37 42 42 43 46 47
57 54 51 49 47 45 43 41 38 37 36 32 30 28 27 28 27 25 24 23 24 23 24 23 21 19 18 18 18 19 17 18 18 19 20 22 23 26 31 34 36 43 44 49 53 57 56
58 56 54 50 48 46 44 41 39 38 38 35 34 32 29 31 31 29 28 28 29 26 28 28 29 29 29 25 27 26 26 26 26 27 28 30 32 34 40 43 44 47 49 49 51 53 56
57 58 55 51 48 47 48 46 43 43 43 41 40 38 34 35 35 33 34 35 34 31 30 31 29 30 33 34 33 30 31 30 31 32 34 35 35 39 45 48 50 52 52 55 57 64 65
58 57 57 56 52 50 49 48 46 47 47 45 44 44 42 42 41 39 37 39 36 35 34 32 33 30 31 31 30 32 33 35 33 39 42 42 42 44 44 46 47 62 57 59 63 70 73
58 61 58 57 57 55 54 52 51 51 50 49 49 49 48 47 45 44 43 42 40 37 36 32 36 35 34 34 33 36 36 36 40 44 46 45 47 48 51 50 52 67 63 67 68 70 76
58 57 59 61 61 59 58 57 55 55 54 54 54 54 52 50 48 45 43 44 42 39 36 34 33 36 38 37 36 37 42 45 43 48 51 53 55 57 61 61 61 71 73 74 74 75 79
60 59 54 55 55 56 60 58 56 56 57 55 53 54 53 51 50 49 48 48 45 43 44 41 41 42 41 42 41 39 40 45 49 50 53 58 61 64 66 68 70 77 79 81 82 81 80
63 62 60 56 55 54 54 53 52 54 53 51 50 52 51 55 53 51 50 47 44 43 44 44 45 47 48 49 49 49 49 53 55 59 62 66 68 70 72 74 77 80 85 85 88 84 90
70 69 67 64 63 59 61 63 57 56 59 61 61 52 53 53 51 49 50 50 48 48 48 47 51 54 52 54 56 56 57 57 61 64 69 69 73 74 78 78 86 89 91 92 97 99 100

GFSGBSN_250_spd_003.txt.gz
Wind_Speed
14 10 9 10 12 14 15 18 19 21 24 25 26 29 29 27 28 29 27 28 30 29 30 33 30 32 39 45 38 46 53 55 64 71 56 81 66 72 80 86 84 77 71 66 55 34 34
11 8 11 15 16 16 19 24 25 25 25 26 26 27 26 25 24 23 23 23 22 22 24 26 28 28 28 32 34 35 38 47 43 50 44 53 46 49 46 53 50 35 32 25 19 17 13
7 10 18 16 19 21 25 25 25 27 26 24 24 24 23 21 19 18 17 16 15 15 17 17 16 20 24 24 26 24 26 28 32 28 39 34 24 22 20 25 24 21 16 11 7 8 10
12 18 24 25 28 29 31 31 32 31 30 29 28 28 28 26 26 23 21 16 14 13 11 13 13 14 14 15 15 17 17 19 24 26 24 16 14 11 12 8 17 8 4 8 11 15 14
20 25 27 30 32 33 33 32 32 31 30 29 28 27 26 25 22 19 14 9 9 10 11 9 9 8 8 8 12 13 15 16 11 14 11 11 9 8 8 8 11 9 12 16 17 18 12
27 30 31 33 35 31 28 30 33 29 28 26 25 23 22 21 19 15 13 13 10 10 9 8 7 6 6 9 11 15 14 14 11 8 8 8 9 8 10 10 8 11 14 18 16 16 12
36 35 38 35 33 32 29 28 27 26 24 22 22 20 18 18 16 15 15 14 13 9 7 6 4 4 6 9 10 13 14 13 8 7 6 9 9 10 9 13 13 11 13 13 15 15 15
34 38 38 32 34 36 34 28 24 19 18 17 19 17 16 15 13 17 18 17 12 8 5 3 3 3 5 7 7 9 13 14 10 8 10 11 12 11 9 8 8 10 13 14 13 15 18
32 32 35 42 33 30 25 23 18 16 14 15 17 18 18 19 20 20 18 13 8 4 3 3 4 5 8 9 10 11 14 17 17 12 9 12 16 13 12 11 13 15 18 20 21 19 23
31 34 36 38 32 30 28 21 16 16 15 20 23 22 20 18 18 16 13 9 5 4 5 6 7 8 11 13 14 14 17 19 20 18 14 13 16 17 16 16 20 20 21 23 25 28 29
34 39 37 35 37 32 27 23 16 16 19 26 26 21 20 21 19 16 11 6 5 6 8 8 9 12 13 13 15 16 18 20 20 21 20 12 15 17 18 21 21 22 22 26 28 28 29
32 38 38 37 34 28 24 21 17 11 23 28 25 20 18 17 14 10 8 8 8 8 7 9 10 10 10 12 14 16 17 20 24 24 24 18 17 15 15 18 22 24 24 24 23 23 25
35 40 40 40 36 28 27 21 20 18 22 26 23 17 16 15 14 12 10 10 11 8 7 10 11 11 11 13 17 20 20 19 22 25 27 25 20 18 17 20 21 23 23 22 24 28 29
39 41 43 43 37 32 28 24 22 21 22 27 23 17 17 17 16 13 12 10 10 10 10 9 12 14 14 14 16 18 21 19 21 24 23 27 27 22 21 20 20 21 22 25 26 30 34
43 47 42 42 36 36 32 26 23 24 27 29 24 18 17 15 14 13 13 11 8 10 11 11 12 15 14 14 16 14 16 18 19 21 23 24 26 24 23 22 21 22 25 27 29 32 35
47 49 47 42 39 40 36 29 22 26 28 26 22 18 16 16 15 14 13 11 11 10 10 10 12 12 11 14 14 15 16 17 18 20 21 24 26 27 26 26 28 29 28 31 33 37 42
51 51 49 44 40 41 34 30 26 31 29 26 22 18 18 16 15 14 13 13 11 12 12 11 11 13 14 15 15 13 11 12 13 16 21 26 28 29 30 32 34 34 36 38 43 46 47
55 53 51 47 43 43 38 33 33 35 31 28 24 22 21 20 17 16 15 14 13 12 12 13 14 13 13 15 15 16 14 10 10 13 15 25 30 29 31 34 36 37 41 44 41 38 37
52 50 53 52 51 50 43 37 37 38 35 31 28 24 23 23 21 20 18 17 17 16 12 11 12 12 14 14 16 16 16 12 11 12 13 18 22 27 30 35 39 40 38 33 35 40 44
51 51 50 52 57 50 44 41 41 40 38 35 33 27 26 24 24 24 22 21 20 18 18 16 15 17 18 17 17 17 17 17 16 15 17 20 20 21 22 24 30 36 37 40 44 46 46
53 53 54 55 53 48 45 45 45 43 40 38 35 33 29 28 27 27 26 25 25 23 23 22 22 24 25 25 26 24 24 24 25 24 23 26 28 29 31 33 36 42 44 50 50 49 47
56 56 58 54 52 49 47 46 46 47 45 42 38 37 35 32 30 30 28 28 29 29 29 27 26 28 29 30 32 32 33 33 33 33 31 32 31 32 37 38 40 48 47 48 49 52 54
56 57 58 57 56 52 49 48 48 48 48 46 44 41 39 36 34 32 31 33 33 32 33 34 32 32 32 31 34 34 32 30 33 35 34 34 32 35 42 45 46 51 50 51 55 59 61
56 59 60 59 58 55 52 52 50 49 49 48 46 44 42 39 38 37 37 35 35 36 37 36 36 35 35 34 33 34 34 33 35 35 38 39 39 43 45 46 48 61 55 57 59 63 69
58 60 62 62 60 57 55 53 52 51 51 50 50 47 45 45 45 44 42 42 40 40 42 43 41 41 39 38 38 37 37 36 36 39 41 43 47 47 50 49 50 65 63 65 67 67 74
59 60 63 65 62 61 59 56 54 53 53 52 52 51 50 48 48 47 47 45 46 45 45 45 43 41 39 38 38 38 38 40 42 45 49 48 50 52 55 56 59 69 70 72 75 73 76
60 62 62 63 64 64 62 60 57 55 55 55 55 55 54 53 52 49 48 49 49 48 47 45 44 44 45 44 45 45 45 45 46 49 51 55 56 58 61 65 65 72 74 77 79 82 84
63 61 63 63 63 63 63 63 61 59 58 57 57 58 56 54 54 54 55 54 52 51 49 47 47 48 45 46 46 47 47 50 49 52 56 59 60 64 67 72 76 79 78 81 85 87 93
64 61 60 63 65 66 65 65 64 63 64 64 63 61 61 59 58 58 57 56 54 51 50 50 49 48 48 49 50 50 51 53 55 54 62 63 70 70 77 77 82 82 85 88 92 94 99

GFSGBSN_250_spd_006.txt.gz
Wind_Speed
20 18 11 9 8 10 9 9 11 12 14 19 23 26 27 28 24 25 26 26 27 27 28 29 30 34 36 38 49 58 68 70 70 73 72 103 75 75 87 88 86 83 98 84 81 78 70
15 12 8 8 10 12 12 13 18 21 22 24 26 27 26 24 24 27 26 25 24 23 23 22 23 22 23 26 31 37 40 43 41 49 57 58 88 95 71 76 83 81 75 69 52 57 40
12 9 11 14 15 20 21 22 23 27 26 26 28 28 26 25 25 24 23 19 18 17 16 14 14 15 14 15 21 23 20 21 23 20 44 61 62 56 64 71 66 56 51 49 27 28 20
9 11 15 17 20 27 25 30 32 31 30 28 27 27 26 23 22 21 19 16 15 14 12 9 9 9 11 17 17 14 15 16 16 19 26 33 31 32 41 47 41 26 21 25 16 13 14
10 16 23 30 27 33 32 36 35 35 34 32 31 29 28 26 24 22 22 22 16 15 13 12 10 12 12 14 16 16 14 14 14 20 25 26 22 22 22 17 14 15 12 12 13 17 17
16 26 36 35 34 36 37 37 36 36 36 35 33 31 30 30 28 26 24 17 15 14 12 13 14 12 11 12 13 12 12 13 20 20 19 16 14 14 15 14 11 11 14 15 17 23 20
24 37 39 37 37 37 35 34 35 33 33 31 31 30 29 26 23 20 19 18 11 16 16 12 9 5 6 7 8 10 13 13 13 11 12 13 12 13 12 12 11 13 15 18 20 21 24
30 37 43 38 40 33 34 34 32 30 30 28 26 25 24 21 19 18 14 10 13 13 11 9 6 5 3 3 5 8 11 13 14 8 9 11 11 13 12 12 14 16 16 16 16 20 22
37 42 42 40 38 32 31 30 28 26 25 25 24 23 19 15 12 14 16 14 12 10 7 6 4 1 3 6 7 10 13 14 16 14 12 13 14 16 15 14 13 12 13 15 18 23 24
42 42 40 40 34 30 30 30 25 20 18 19 20 21 19 16 17 18 17 14 11 7 6 5 2 2 6 9 11 11 14 18 20 19 18 15 15 19 20 19 18 16 19 20 23 23 25
46 44 41 42 38 34 28 24 21 19 17 19 22 21 19 17 16 18 16 11 8 7 4 3 2 5 8 9 10 10 11 15 20 22 22 20 18 18 20 24 21 21 23 25 26 28 30
45 47 44 40 42 31 26 22 17 16 18 23 25 21 20 18 19 17 14 11 10 8 5 5 7 8 10 11 12 13 14 15 16 22 25 25 21 17 19 22 21 22 25 29 31 31 28
40 44 42 46 31 30 29 21 17 16 22 28 24 21 21 21 20 17 13 10 8 7 6 7 7 10 13 14 16 19 20 21 21 22 25 27 25 21 20 20 23 23 24 24 23 22 25
39 39 40 41 35 33 31 21 17 18 26 28 26 21 21 21 18 16 13 10 9 8 9 9 9 11 13 16 19 19 19 19 20 24 24 27 26 26 25 23 23 25 25 24 22 23 24
42 37 41 37 40 36 25 24 20 21 26 28 28 21 19 20 19 16 12 10 9 9 9 11 12 13 14 16 15 17 18 17 19 19 20 21 25 25 27 26 25 25 25 25 27 28 32
46 39 43 41 41 36 30 26 22 22 25 32 29 22 20 20 18 15 13 14 14 11 10 11 11 11 13 13 14 14 14 15 16 14 17 19 23 26 26 26 26 26 28 30 31 32 36
48 45 45 43 44 40 32 33 24 25 24 30 30 26 22 19 17 17 16 16 14 12 12 12 13 11 13 13 14 13 13 13 14 13 13 16 21 26 28 30 29 30 31 33 34 39 41
51 48 48 48 46 43 37 34 28 27 24 31 31 27 23 20 20 19 17 18 15 15 14 11 12 12 12 13 14 14 12 12 11 13 11 11 14 19 27 30 32 35 36 37 39 39 38
52 49 50 51 47 47 43 38 35 30 28 32 31 28 25 24 23 21 20 18 18 19 17 14 13 15 14 16 18 19 16 15 14 15 16 15 12 11 15 20 23 27 29 28 31 36 41
59 54 61 59 52 49 41 41 41 35 32 35 33 30 26 26 25 24 23 23 22 21 20 19 18 17 17 21 22 22 22 21 22 22 23 24 24 23 24 29 32 33 33 34 36 39 41
65 59 57 58 54 54 44 49 43 40 36 39 36 34 30 28 26 26 26 26 24 25 25 24 22 22 24 26 28 30 29 30 31 30 32 34 33 31 33 34 34 37 38 40 40 44 42
60 61 62 59 57 54 53 50 50 44 41 41 42 39 35 32 29 29 30 29 29 30 29 28 29 29 29 30 31 33 33 32 31 31 32 31 30 31 35 34 36 43 46 45 45 49 50
55 61 59 60 58 59 56 58 54 50 45 43 44 43 40 39 36 34 33 33 32 32 32 32 32 33 34 35 35 36 35 34 34 33 34 35 34 32 36 38 42 51 52 45 48 55 57
51 57 59 59 56 56 58 58 59 53 50 49 47 48 46 44 42 42 39 38 37 34 34 34 35 36 37 38 37 38 40 39 36 38 38 37 35 34 36 39 40 57 53 49 52 58 64
50 53 58 58 59 58 57 59 59 54 51 51 51 53 51 49 48 46 44 43 40 39 39 41 41 41 43 43 41 40 41 39 38 40 43 43 43 41 43 44 44 54 55 55 58 62 69
55 54 57 59 60 60 60 58 56 56 54 53 53 54 55 54 51 48 48 46 44 44 45 45 45 46 46 46 44 41 41 44 46 48 48 50 49 49 50 52 51 59 60 61 63 65 70
57 57 57 60 61 64 65 62 61 60 58 56 56 54 54 54 53 51 50 50 49 49 49 49 49 50 49 47 43 42 43 48 49 50 50 50 51 54 57 57 56 61 64 66 69 72 77
59 59 59 61 63 64 65 64 63 63 61 59 57 57 56 55 55 53 53 53 54 54 53 53 53 54 49 46 44 45 46 47 50 53 56 56 58 62 60 63 64 66 69 74 78 81 85
62 61 62 62 64 65 66 66 66 66 64 62 60 58 57 57 57 57 56 55 55 56 57 58 55 49 44 47 48 47 50 51 51 53 62 63 68 64 67 67 72 72 77 82 85 87 91

GFSGBSN_250_spd_009.txt.gz
Wind_Speed
28 25 26 23 15 10 7 8 11 13 16 19 22 25 28 29 27 27 30 29 27 30 30 31 29 31 34 39 42 50 56 63 68 78 89 97 98 97 86 86 91 84 91 92 85 89 75
25 24 22 16 10 8 8 10 12 15 17 21 24 25 27 27 27 27 27 25 26 25 24 24 24 24 26 29 29 31 33 39 45 57 63 71 88 67 79 88 84 86 86 84 77 68 77
22 21 18 11 11 9 12 14 20 24 26 28 30 29 30 28 26 24 24 23 22 21 19 17 14 13 13 13 17 22 27 29 34 43 47 60 52 36 52 69 64 75 73 71 57 53 41
19 17 13 14 15 17 18 23 26 29 31 31 29 30 27 25 25 23 19 17 16 14 13 11 8 7 5 4 5 7 9 13 18 22 27 32 40 45 51 40 36 41 47 30 39 22 21
16 13 16 19 22 25 25 27 30 33 32 31 30 26 26 25 25 23 20 18 18 19 16 15 13 12 11 10 12 12 14 18 20 22 24 27 29 32 33 33 32 32 24 20 20 19 17
13 19 21 28 31 30 32 32 35 35 33 31 29 28 28 26 26 27 26 22 19 17 15 12 14 14 14 13 13 15 18 19 19 20 21 24 27 25 22 19 16 16 14 15 18 17 13
18 25 29 35 33 36 38 38 37 35 35 34 33 31 31 30 29 27 24 22 19 16 16 17 16 16 15 12 11 13 15 15 19 24 20 18 16 14 10 10 11 12 14 17 19 19 17
27 36 37 39 38 41 39 38 38 36 36 35 34 32 30 29 29 26 22 17 16 18 19 17 16 13 9 6 5 6 8 10 12 14 14 11 10 10 11 11 8 10 13 17 18 19 20
39 43 42 41 40 39 38 37 35 34 33 33 33 33 31 29 25 23 20 19 20 19 17 15 11 9 6 3 1 3 6 8 11 11 12 10 10 11 12 12 9 10 14 15 17 18 16
46 44 45 43 41 38 37 35 33 33 31 29 29 28 28 23 21 22 22 20 19 15 11 9 8 6 4 3 5 7 9 11 13 14 14 13 12 12 13 15 16 17 18 18 20 20 20
48 48 48 45 42 39 35 33 31 29 31 30 28 27 24 22 22 23 20 18 14 11 10 10 9 9 6 4 6 5 7 9 13 16 18 19 18 17 18 19 21 22 21 23 23 22 24
50 50 50 47 39 38 35 30 25 25 26 28 24 23 21 21 20 22 19 15 11 9 8 7 7 4 3 5 7 10 12 14 16 18 19 21 23 23 22 21 23 22 22 23 24 25 25
53 52 52 46 39 37 34 26 24 21 22 26 27 24 21 20 21 21 18 13 11 9 7 5 5 3 4 8 10 12 13 15 15 16 20 24 25 28 26 25 23 23 24 22 22 23 20
55 53 53 45 41 36 29 25 20 20 23 28 26 23 23 22 22 20 16 12 9 9 7 6 6 5 9 11 11 12 14 14 15 15 17 19 23 24 28 26 26 24 25 23 22 21 21
55 53 52 50 45 40 31 25 20 20 24 29 27 25 25 24 23 19 16 11 10 10 9 8 7 9 10 10 10 10 10 12 14 15 15 16 18 20 21 24 28 28 27 24 23 23 27
57 56 54 49 49 40 32 29 24 21 23 29 28 23 24 24 22 18 17 13 13 11 9 8 7 7 9 9 11 10 9 11 12 13 14 14 15 17 19 22 24 26 26 26 26 26 29
54 58 55 51 51 39 34 33 25 22 28 28 28 23 23 23 21 20 18 16 14 14 12 10 8 9 11 11 9 8 7 9 10 10 12 14 15 13 15 19 21 25 26 27 29 33 34
54 53 55 50 45 40 38 33 28 25 24 27 32 30 24 21 21 22 19 17 16 15 12 9 8 10 11 11 11 11 12 12 10 10 11 11 13 13 13 13 16 21 26 30 30 27 30
57 53 49 50 46 42 43 36 29 27 25 26 27 33 29 25 24 23 20 20 19 16 13 12 13 13 12 13 14 14 15 16 18 19 19 19 20 19 20 21 22 24 27 28 28 29 33
58 56 51 51 51 49 45 39 35 32 30 26 27 32 31 28 27 24 22 22 20 17 17 17 17 17 17 18 18 20 22 22 23 26 28 29 28 29 31 30 30 32 29 28 31 31 32
60 59 53 53 50 48 50 44 39 35 34 30 29 32 32 30 29 27 26 24 21 19 20 20 21 21 22 22 23 24 26 28 30 28 29 30 30 29 28 28 30 33 35 32 33 37 39
64 62 57 54 54 54 49 48 45 39 39 36 33 34 34 33 31 29 27 25 24 24 25 25 26 27 27 28 29 30 32 33 33 33 32 32 29 31 34 31 32 38 37 38 37 41 44
64 63 58 59 57 57 58 53 49 44 45 43 38 36 38 37 35 32 30 29 29 29 29 30 31 31 32 32 32 34 34 35 35 35 36 36 31 29 33 33 38 44 42 44 45 49 50
60 65 63 59 59 58 60 58 53 49 44 45 43 39 40 41 40 38 37 35 34 34 33 33 34 34 34 34 35 37 38 39 40 39 39 39 34 31 35 36 39 47 42 44 49 54 56
52 60 67 68 60 62 64 63 58 58 51 48 48 45 42 45 45 45 43 41 41 41 40 39 38 40 40 39 40 42 42 44 44 43 41 42 39 40 38 37 39 50 49 53 54 58 61
51 54 56 65 69 63 64 65 62 57 53 53 53 51 49 48 48 47 47 46 46 47 46 44 45 46 46 45 45 44 45 46 44 44 45 46 45 45 42 43 46 51 54 58 60 65 69
52 53 52 59 65 66 65 65 64 63 61 59 57 54 54 52 52 50 51 52 52 50 50 49 50 51 51 50 48 47 48 48 47 47 48 50 49 50 48 50 54 59 61 65 71 70 72
57 54 51 52 59 65 64 64 63 59 56 58 60 59 56 55 54 52 53 54 55 54 54 54 54 54 54 54 51 52 49 45 47 49 53 54 51 52 54 61 63 66 67 73 73 74 79
61 57 57 54 53 57 61 64 63 62 60 59 59 58 58 58 57 56 53 53 52 53 55 56 57 58 55 54 54 53 48 47 49 52 58 58 59 58 60 67 70 72 74 73 76 79 86

GFSGBSN_250_spd_012.txt.gz
Wind_Speed
23 26 29 27 27 25 22 15 15 17 20 21 21 24 25 27 25 26 27 29 30 31 33 36 39 40 39 41 42 44 47 51 58 67 71 76 84 90 90 93 96 98 96 101 102 101 97
24 25 26 24 22 19 15 12 13 15 17 19 23 25 28 27 27 27 27 27 28 30 31 30 31 28 27 29 32 35 38 42 46 51 57 67 81 89 91 84 86 84 85 90 68 69 70
20 24 23 20 16 14 13 12 12 17 22 25 27 27 29 30 29 28 28 28 27 27 24 23 24 23 22 23 25 27 29 31 32 36 40 47 48 56 69 68 67 66 70 76 73 52 47
21 21 20 17 13 14 12 14 17 21 24 27 28 29 30 28 28 28 27 24 24 23 22 20 19 19 16 18 18 19 20 23 25 28 30 33 36 39 42 49 52 44 42 59 56 35 42
20 19 15 15 15 16 17 21 25 30 31 34 33 32 31 29 28 27 25 25 24 22 21 19 20 21 20 20 20 18 18 20 20 21 23 25 27 29 28 25 24 25 28 27 27 25 24
18 16 14 17 20 22 26 28 30 34 34 34 32 30 28 28 28 28 26 23 22 21 21 19 19 17 15 12 11 12 13 14 15 16 19 20 19 17 18 18 19 19 19 18 20 20 21
16 14 22 22 26 32 33 34 34 33 33 30 30 31 32 32 29 29 28 29 27 23 19 16 14 11 10 10 10 11 12 13 12 14 15 16 14 15 17 17 16 16 16 17 18 19 18
15 20 26 31 37 37 38 37 37 35 32 30 32 34 33 33 33 31 26 23 22 21 17 15 14 13 12 11 10 12 11 11 13 15 15 15 16 13 14 17 17 17 16 15 15 16 21
18 29 34 37 41 40 40 40 40 33 32 33 35 36 35 32 28 26 24 23 22 19 18 16 14 13 12 10 9 7 7 8 11 14 15 15 13 15 16 16 17 16 12 12 15 18 21
27 36 40 41 46 44 43 41 36 33 34 34 32 32 31 31 30 27 25 23 22 21 19 17 16 14 11 9 8 6 7 8 10 13 15 15 17 17 17 17 18 19 17 17 18 19 19
40 40 44 47 47 42 41 38 35 33 32 32 31 33 32 30 30 27 24 23 23 21 18 16 15 13 8 4 2 2 3 6 8 10 13 17 20 22 21 22 20 20 21 21 21 22 23
45 45 49 47 43 43 40 37 35 34 34 33 32 32 29 28 28 25 23 22 19 17 15 14 12 10 7 5 3 2 4 7 10 13 16 18 21 24 27 26 24 21 23 24 25 26 25
52 53 51 47 44 42 40 37 34 34 35 32 29 29 27 26 26 25 24 21 17 15 14 14 11 9 7 4 4 6 7 10 11 13 14 15 20 25 24 25 28 27 25 25 26 27 27
55 56 53 50 47 43 39 36 34 32 31 32 30 28 27 28 27 26 23 18 14 12 12 13 10 8 6 5 6 6 8 8 10 10 10 12 15 16 18 22 23 26 27 27 28 28 29
57 59 56 54 47 44 40 38 36 34 32 33 30 28 27 25 26 25 21 18 13 13 12 9 7 8 7 6 5 5 6 7 7 9 10 11 13 12 13 16 18 21 24 28 28 28 28
60 61 59 57 48 44 43 37 31 33 33 33 31 28 26 25 26 24 21 16 12 12 11 10 8 6 6 4 4 5 2 3 5 8 9 11 13 13 14 12 13 17 21 24 27 25 26
58 63 61 58 51 47 40 37 31 30 32 34 32 28 27 26 26 23 20 17 12 12 11 10 8 6 7 6 4 3 3 3 4 6 6 7 10 13 14 13 12 12 13 16 21 25 27
61 66 64 60 54 49 43 38 34 32 32 35 33 29 27 27 25 22 20 18 14 14 14 13 11 8 6 7 7 6 5 7 8 9 10 11 12 14 17 18 18 19 20 19 20 23 28
64 65 65 60 53 50 46 40 35 31 33 35 35 30 26 25 25 23 21 20 18 16 16 15 12 10 8 8 8 9 11 12 13 15 17 20 23 23 24 25 26 24 25 25 26 28 30
63 65 64 62 58 55 51 39 40 33 32 36 35 33 31 27 25 24 23 22 20 18 19 17 14 13 13 14 14 15 16 18 19 22 24 26 28 28 26 28 28 27 25 25 27 28 28
65 62 64 62 59 57 54 42 41 36 33 33 32 29 33 33 29 27 26 25 22 20 21 18 17 17 18 19 19 20 21 23 24 27 28 28 31 33 32 31 35 33 29 30 30 34 36
63 67 64 63 62 57 57 46 46 40 36 33 33 29 32 34 33 31 29 28 26 24 23 22 21 21 22 23 24 26 27 27 29 29 29 29 33 36 38 34 37 37 32 33 37 36 37
65 64 63 65 62 59 52 47 49 45 39 37 33 30 28 32 33 33 31 30 30 28 27 26 25 25 25 26 29 31 32 33 32 32 33 34 36 37 39 38 42 38 41 42 42 42 44
62 65 64 62 63 60 56 55 51 49 45 40 36 34 34 33 34 35 35 33 33 33 31 29 29 30 30 31 32 34 37 38 39 39 39 40 41 40 39 39 44 40 42 44 46 49 51
59 64 66 64 63 62 60 59 56 53 49 45 41 40 39 38 36 36 39 39 38 36 35 34 34 35 37 37 37 38 40 43 43 45 44 43 43 39 38 39 44 47 46 48 49 55 59
59 62 66 65 63 59 60 62 61 57 54 50 48 44 41 42 40 39 39 41 43 42 42 42 42 43 44 45 44 45 47 49 49 50 49 47 44 41 40 43 46 45 47 51 54 57 62
54 59 64 67 66 63 60 60 61 61 59 57 55 51 48 47 46 44 44 41 43 45 48 49 50 49 48 47 49 50 51 53 52 52 51 50 48 45 46 45 46 47 52 56 61 63 68
57 53 55 65 67 68 65 62 61 62 62 59 61 59 56 55 53 51 49 48 49 49 49 51 51 53 53 53 52 52 55 56 54 53 55 52 50 49 49 51 51 54 59 61 64 68 70
60 57 53 52 61 71 70 63 63 62 63 62 64 63 61 58 57 57 56 55 51 52 54 53 52 52 52 52 51 53 54 53 55 55 57 54 53 54 52 57 57 61 63 66 68 71 75

GFSGBSN_250_spd_015.txt.gz
Wind_Speed
19 20 20 26 31 29 31 30 27 24 21 22 23 24 25 27 28 29 30 30 30 30 32 36 38 41 42 43 45 45 47 48 51 55 60 66 76 80 84 83 79 79 83 88 91 93 90
20 21 25 29 26 27 28 26 21 17 16 20 24 25 24 25 27 27 27 27 26 27 29 32 34 35 36 37 37 40 42 44 46 48 54 58 63 65 72 72 75 74 80 79 79 79 81
23 24 26 26 24 26 25 19 14 13 15 21 24 25 26 25 25 26 26 25 25 24 26 28 30 31 33 32 33 35 37 39 41 44 46 51 53 55 57 58 59 62 63 64 68 66 68
24 22 25 23 22 23 18 15 14 15 17 20 23 25 28 27 27 26 24 23 23 24 25 26 27 27 27 27 28 29 29 29 31 32 33 34 36 39 40 44 47 49 50 51 55 54 46
24 21 24 20 21 18 14 14 13 17 22 24 26 29 30 28 25 24 23 23 24 25 24 23 23 23 22 22 22 23 24 26 29 30 32 33 34 35 35 36 38 38 37 34 36 35 36
21 23 23 18 18 16 16 16 21 26 30 31 31 30 29 27 27 26 24 25 25 25 25 25 25 22 24 24 23 25 26 27 30 30 30 29 30 32 30 26 25 20 18 18 20 21 22
23 25 19 19 18 20 21 24 29 33 34 35 34 33 33 32 29 27 26 27 27 27 26 25 24 26 25 23 22 20 21 18 16 15 16 16 16 16 16 15 16 17 17 15 15 18 21
24 22 19 19 22 26 31 32 35 37 35 35 35 34 32 32 32 31 31 30 29 28 25 23 21 19 15 14 13 12 13 12 13 13 12 13 13 14 14 14 15 15 16 15 16 17 19
23 20 22 23 30 37 36 39 38 37 33 33 34 34 34 32 31 30 29 27 24 22 21 19 14 13 12 11 10 10 11 12 12 12 13 14 14 16 16 17 18 16 16 18 19 18 21
22 22 26 32 40 39 40 39 39 35 32 33 34 34 34 33 30 28 26 23 22 20 17 16 16 15 14 13 11 11 10 8 9 11 13 15 17 17 18 20 20 19 21 22 23 21 22
22 26 33 43 46 43 42 39 39 32 34 35 33 33 32 30 26 26 24 22 21 20 20 18 18 16 14 10 8 6 4 4 6 8 11 14 18 21 23 22 23 24 25 25 25 27 27
25 33 42 49 49 44 40 41 39 33 35 35 33 31 32 30 27 24 22 21 21 21 20 19 17 14 11 9 7 6 7 8 8 9 11 14 15 18 21 25 27 28 28 29 31 33 33
31 39 47 52 50 42 42 41 38 36 35 33 33 34 32 29 26 24 24 24 23 21 18 14 14 12 9 8 6 5 6 8 10 10 10 11 12 15 16 19 24 26 30 31 32 32 32
37 43 52 50 50 43 45 41 38 37 36 36 36 34 30 29 26 24 24 23 20 17 15 16 15 13 12 9 5 5 3 4 5 5 3 4 7 10 12 13 14 20 24 29 33 34 35
44 47 51 55 50 46 43 41 40 40 37 36 33 33 30 29 27 25 25 21 19 18 17 16 14 12 11 7 4 3 2 2 2 4 5 6 6 8 9 9 12 15 17 19 26 31 34
49 52 57 53 46 47 44 41 42 41 39 36 34 31 28 28 28 26 25 21 17 18 18 16 12 9 9 5 2 2 3 1 1 2 3 4 7 11 12 12 11 12 13 16 19 23 27
55 59 61 53 48 46 44 43 43 39 38 38 35 33 30 30 29 29 25 21 17 17 15 13 10 10 8 6 4 4 3 3 3 3 5 8 10 12 14 15 17 18 19 19 19 21 23
61 61 62 56 52 48 46 46 44 40 39 36 35 34 31 30 29 28 26 22 16 15 15 13 13 12 9 8 7 7 7 6 6 7 9 11 14 17 20 21 21 21 22 23 25 29 33
63 64 64 59 55 52 48 46 43 43 39 37 38 34 31 30 28 28 26 24 19 15 15 14 14 14 11 10 8 8 9 9 11 13 15 18 20 23 25 26 26 26 26 25 26 29 32
61 65 66 63 58 54 50 47 42 40 37 38 39 35 31 30 29 29 27 24 20 17 17 16 17 16 15 14 12 12 13 15 16 17 20 22 25 27 29 30 30 29 30 32 33 35 34
60 63 65 66 61 56 52 47 43 40 38 38 40 38 34 32 30 29 26 24 22 21 20 20 20 20 19 18 16 16 18 20 21 22 23 25 27 29 32 34 36 36 34 35 37 37 37
57 65 66 68 65 59 54 51 45 40 35 38 41 41 37 33 30 28 27 25 24 24 24 23 23 23 23 21 19 20 22 23 25 26 28 28 29 34 40 41 43 44 41 40 39 38 41
58 65 65 67 68 62 56 49 46 43 39 36 40 38 35 34 34 33 30 27 26 27 26 26 26 26 25 24 24 25 26 28 29 31 31 32 34 36 40 42 46 44 42 40 42 39 45
59 65 65 69 69 63 59 55 53 47 44 39 36 37 40 33 29 32 33 33 31 31 30 30 29 29 28 28 29 30 32 33 34 36 37 38 40 41 42 42 47 43 43 45 46 45 45
61 65 65 68 67 68 61 61 57 53 45 43 39 37 36 33 32 28 30 34 34 34 34 33 32 33 33 34 35 36 38 40 41 43 44 44 44 45 46 44 46 46 46 48 48 47 47
62 65 68 65 66 68 64 63 59 56 54 51 46 40 37 39 34 33 34 32 32 36 37 38 37 39 39 41 43 44 45 46 46 47 49 50 51 50 50 47 49 45 44 47 46 48 50
62 65 68 67 65 65 64 61 61 58 55 54 51 47 43 41 40 39 38 38 37 35 36 38 42 45 46 48 49 52 53 54 53 53 54 52 54 54 51 52 50 48 50 52 52 53 58
59 65 67 67 68 67 66 64 65 60 60 58 55 54 51 47 48 45 42 41 40 41 42 43 43 45 46 47 50 51 54 54 54 54 53 55 55 57 56 59 54 52 52 54 58 61 64
58 60 65 68 69 65 64 65 66 68 64 62 58 58 58 53 53 52 51 48 48 49 49 50 50 50 49 53 54 55 55 54 54 55 57 61 60 61 61 64 62 59 58 61 63 66 71

GFSGBSN_250_spd_018.txt.gz
Wind_Speed
42 39 29 22 22 23 25 30 33 30 30 28 23 22 24 25 24 24 25 26 29 31 31 33 34 36 39 41 41 43 45 48 48 52 54 59 64 70 77 80 84 86 91 83 91 88 85
41 36 24 25 23 23 27 31 31 29 25 22 19 21 23 24 23 23 24 25 26 26 27 29 31 34 36 37 37 40 40 42 45 48 51 50 53 59 64 72 75 79 81 86 84 85 87
38 28 26 25 21 21 29 32 28 23 19 17 18 23 23 23 24 23 24 23 24 24 24 25 27 30 33 33 33 35 35 38 40 42 43 45 47 51 55 58 61 64 68 75 80 84 83
30 27 24 24 19 25 30 29 23 17 15 15 20 23 24 24 25 24 22 21 20 20 21 23 24 26 27 27 29 30 31 33 36 38 41 43 44 44 46 47 50 52 55 57 59 61 66
35 27 26 22 19 27 28 24 16 13 15 14 21 24 24 25 23 21 20 18 19 19 20 21 20 21 22 24 25 27 29 30 32 34 36 38 36 35 35 37 38 41 44 48 51 52 52
31 29 26 20 22 27 23 17 12 13 15 18 24 27 26 25 23 22 21 20 22 22 22 22 20 20 23 22 23 24 25 25 28 29 29 28 29 30 31 32 32 34 40 41 43 44 40
34 30 23 21 25 24 18 14 14 17 20 24 25 28 29 28 25 24 23 24 26 25 25 22 25 26 22 22 21 21 21 22 21 23 26 28 28 29 28 29 32 32 31 30 29 31 30
36 29 22 23 26 19 19 18 21 28 31 30 31 32 31 28 28 27 27 26 24 25 25 26 23 24 22 20 19 19 20 20 19 19 20 21 21 23 24 24 24 22 21 22 24 25 26
35 27 23 25 22 21 24 25 29 35 34 34 34 33 33 33 30 30 30 31 28 27 27 26 24 22 19 17 15 13 14 13 12 13 14 15 16 18 18 19 21 21 22 22 24 25 26
34 27 23 24 21 27 32 32 34 36 37 36 36 36 34 32 32 31 29 31 27 23 23 22 20 18 16 15 14 13 11 9 9 10 11 13 15 17 18 21 20 20 21 23 25 27 25
29 28 25 24 26 34 37 38 37 35 35 36 36 36 34 33 29 32 29 27 23 21 18 17 18 17 17 14 11 9 8 9 10 10 10 11 14 16 18 21 21 22 23 25 26 26 27
30 28 25 27 36 43 43 41 37 35 35 36 37 36 35 34 33 27 23 20 20 20 20 20 18 17 14 12 9 8 6 5 4 5 8 10 13 14 17 19 23 25 26 27 28 29 31
32 28 27 36 44 43 45 41 40 35 35 36 35 35 33 31 26 25 25 23 22 21 20 19 17 14 12 10 8 6 4 3 4 6 7 8 7 8 10 13 16 20 25 26 29 30 34
32 30 34 49 47 49 43 41 39 34 35 34 35 33 32 30 27 25 24 24 22 20 19 17 16 14 10 8 5 2 4 4 2 2 2 0 2 5 7 8 9 10 11 15 21 26 30
35 33 43 52 49 48 41 40 39 36 36 35 33 33 32 27 26 24 24 24 22 19 17 15 14 13 10 8 5 6 5 2 2 3 6 6 6 7 9 10 12 13 13 13 13 15 20
40 38 49 55 54 47 40 42 42 36 37 36 36 37 32 29 26 26 26 25 21 18 17 17 16 13 11 9 6 7 6 5 4 3 2 2 4 7 9 11 14 16 18 19 21 23 25
43 42 54 57 55 47 42 45 41 40 38 38 39 36 32 31 28 26 26 23 20 18 18 18 14 11 11 9 7 8 7 5 3 2 2 4 7 10 13 15 17 19 21 22 23 25 26
46 46 54 58 56 45 45 45 42 42 39 39 37 37 32 30 28 27 26 22 19 19 20 17 15 13 12 10 9 9 9 7 6 6 7 8 11 13 15 18 20 20 21 23 27 30 30
49 48 55 58 58 50 47 44 44 44 43 40 37 35 32 30 29 29 27 24 21 20 20 17 15 14 13 12 12 10 10 10 9 10 12 14 16 18 20 22 27 28 30 33 34 36 36
53 49 56 59 55 50 49 46 45 45 43 40 38 36 31 29 30 30 30 27 24 19 18 17 14 14 15 15 12 11 12 11 11 13 16 18 20 22 23 24 27 30 30 35 34 36 38
57 53 61 62 53 50 49 49 46 46 41 41 38 36 34 32 32 32 30 29 26 23 19 17 16 18 18 18 17 17 16 15 15 17 19 21 24 26 27 30 32 36 36 39 39 39 36
60 58 62 64 55 54 51 49 49 45 42 39 35 37 36 35 31 30 30 29 27 25 22 20 19 21 21 22 22 21 21 19 19 20 21 23 26 29 32 34 36 40 41 43 43 42 40
63 62 64 66 61 57 52 50 50 46 42 40 41 41 39 36 32 31 30 30 29 27 25 23 23 23 25 25 24 24 24 24 24 25 26 28 31 34 39 41 44 43 44 46 47 47 46
64 64 65 65 63 58 57 51 51 47 45 42 39 37 39 38 35 34 31 30 29 27 27 24 24 26 25 27 28 29 29 29 30 31 33 35 38 40 42 45 49 48 47 47 47 49 49
64 64 66 66 66 63 59 55 53 50 44 41 34 35 38 40 36 34 34 32 32 32 29 29 30 30 29 30 32 32 33 35 36 39 41 42 45 47 49 49 52 49 48 52 50 55 52
61 63 64 66 67 66 64 59 55 54 50 42 38 36 38 36 35 32 28 30 26 28 31 33 33 33 33 34 37 37 39 41 43 45 48 49 51 52 53 51 52 54 51 54 53 54 53
58 63 63 67 65 66 65 65 59 56 53 51 47 42 37 35 35 34 30 32 28 29 26 29 29 30 34 37 39 41 41 44 43 46 50 52 52 54 54 55 55 57 57 60 61 59 57
59 58 63 63 66 64 66 67 64 59 57 54 51 48 46 43 37 35 37 34 35 32 34 34 35 35 37 38 40 43 44 47 49 52 56 58 60 60 60 61 60 61 61 62 67 65 62
60 59 62 62 64 63 64 67 67 62 62 58 56 53 52 52 51 45 39 38 38 40 41 42 40 45 45 48 49 51 54 57 60 62 62 65 69 65 63 66 67 67 65 64 66 64 66

GFSGBSN_250_spd_021.txt.gz
Wind_Speed
67 64 68 52 44 35 31 24 24 24 28 28 28 30 29 30 26 24 25 27 29 27 27 27 28 27 30 32 31 33 35 38 41 45 48 49 55 67 79 76 78 78 75 76 79 82 82
74 64 64 47 37 34 27 21 25 25 28 29 28 28 27 23 21 21 21 23 24 24 24 24 26 29 30 30 30 30 32 33 32 36 40 45 46 55 68 76 76 75 75 78 77 78 81
77 61 58 46 38 32 23 23 24 27 29 28 24 25 21 18 19 20 22 22 20 21 22 22 24 27 29 31 30 30 29 31 34 35 40 45 46 47 52 56 67 78 80 83 81 79 82
80 67 51 40 32 29 22 23 26 30 27 24 21 19 18 19 21 20 19 19 20 19 19 20 22 23 25 25 26 28 27 28 30 32 34 38 41 45 50 53 58 66 73 77 82 80 79
77 62 48 33 30 27 21 23 29 26 22 18 16 15 19 20 20 20 19 19 17 17 19 21 22 22 23 24 25 25 26 28 29 31 34 37 38 40 43 44 47 51 56 59 60 65 65
63 56 37 32 29 24 22 24 29 21 18 14 14 19 21 20 21 21 20 19 18 19 18 18 18 20 22 22 22 23 23 24 26 27 30 31 32 34 36 39 42 43 44 42 45 46 46
55 44 31 34 28 21 23 28 26 17 14 14 17 23 21 23 22 20 18 20 22 21 22 21 19 22 18 20 21 20 20 20 21 23 25 29 33 36 37 34 32 31 31 30 34 33 36
49 35 32 35 27 21 24 30 20 16 16 18 21 26 25 25 25 23 22 22 19 23 27 27 23 21 21 19 17 18 19 19 18 18 19 20 20 22 23 25 27 29 27 26 31 31 31
40 33 39 34 25 22 25 26 17 18 21 24 25 30 30 30 30 29 30 29 26 24 25 27 22 21 22 20 19 17 14 14 15 16 18 18 20 22 23 23 23 24 26 26 29 29 30
38 40 42 32 25 23 25 23 19 24 26 31 32 32 30 27 28 28 31 31 26 25 26 26 24 24 23 20 18 17 14 16 16 16 15 13 13 14 15 15 15 23 18 22 23 27 29
40 45 42 32 23 23 26 25 24 32 35 35 34 31 30 30 30 30 29 31 28 25 25 23 22 22 20 18 17 16 14 13 10 8 8 8 9 12 14 14 16 21 20 22 24 26 29
46 48 41 30 23 24 30 28 31 38 39 38 34 34 33 33 32 32 31 31 29 23 24 23 23 21 20 18 16 13 11 9 7 8 8 10 11 11 12 12 14 16 20 23 24 26 30
49 50 39 30 25 29 33 36 41 41 39 36 36 36 35 34 33 32 31 29 29 25 24 23 22 21 18 15 13 11 9 7 7 7 6 7 7 5 4 6 8 11 13 15 15 21 25
53 50 39 30 29 37 40 44 41 39 38 37 37 36 35 33 33 31 30 28 27 25 24 23 21 18 16 14 11 9 7 5 5 5 4 5 6 6 6 6 6 6 6 8 9 13 19
55 48 38 31 35 45 50 45 40 38 37 38 37 36 35 33 29 29 29 27 25 24 21 19 18 17 15 12 9 7 6 6 6 7 9 10 9 7 6 7 8 10 11 13 15 18 21
55 48 35 35 44 51 51 44 41 39 38 38 37 36 32 30 30 29 28 26 24 21 20 19 19 16 12 10 5 7 6 7 8 9 9 6 4 3 4 6 9 12 15 17 19 23 28
56 45 35 42 54 54 49 41 46 35 38 37 36 34 32 29 29 28 28 26 23 21 19 18 16 14 13 10 8 10 10 10 8 7 5 3 2 3 6 9 11 12 15 17 17 21 25
56 43 41 53 56 57 48 39 45 35 40 38 37 34 33 30 28 26 27 25 22 20 18 18 18 16 14 11 9 11 10 10 9 7 6 6 7 9 11 13 14 15 16 22 26 26 28
56 44 46 62 57 56 46 40 46 39 38 37 38 35 34 30 27 27 28 25 22 19 18 18 17 16 14 12 11 13 12 12 11 11 11 11 11 14 16 18 18 19 23 26 31 35 39
55 47 50 61 59 56 48 42 44 42 39 40 38 37 35 30 29 26 26 26 23 19 19 19 18 16 13 12 13 12 12 12 13 14 14 14 15 16 18 20 22 25 27 29 31 34 37
57 51 52 64 59 56 48 43 45 42 44 40 41 39 38 34 31 28 28 28 26 21 18 20 19 17 16 14 15 15 15 15 15 16 16 17 18 19 21 23 26 31 33 36 38 39 40
57 52 53 64 59 55 50 45 46 41 45 44 41 38 36 34 28 26 28 30 28 25 22 19 18 17 17 19 20 20 18 17 17 19 20 21 23 25 26 29 33 38 39 42 44 46 46
58 53 56 65 60 57 49 48 41 46 46 43 39 37 36 36 31 30 31 30 30 28 24 22 18 19 22 19 20 22 20 20 20 22 24 25 28 31 33 37 41 44 48 49 50 51 50
59 56 55 63 63 61 52 49 44 46 45 43 43 41 36 34 32 32 31 31 31 28 24 22 24 23 22 19 21 20 21 21 24 25 29 30 33 35 39 42 44 43 46 50 52 53 56
59 55 55 62 64 60 53 50 46 47 47 49 40 37 37 34 33 32 31 32 29 26 26 27 27 24 23 24 25 25 26 26 29 29 32 35 37 39 41 43 48 49 52 56 56 58 61
59 57 54 62 64 61 55 52 51 48 50 45 42 40 35 34 36 35 35 30 30 27 28 26 28 29 31 31 29 30 30 30 31 34 34 35 37 43 47 50 54 54 57 62 60 61 62
59 59 56 58 65 65 57 55 51 47 52 46 43 41 34 32 32 34 34 34 33 30 29 28 26 24 26 24 26 27 30 29 30 36 40 42 46 51 53 56 58 61 58 56 59 61 63
60 62 58 58 61 65 62 59 55 51 50 51 46 44 40 34 31 31 32 33 33 29 29 28 26 26 26 27 31 34 36 40 42 45 49 51 55 59 61 63 62 60 58 59 64 65 65
59 61 61 59 59 62 63 62 60 58 52 51 51 47 46 41 36 32 32 33 35 33 33 33 31 33 32 37 39 41 42 45 48 52 55 57 62 65 67 67 69 63 63 63 65 67 68

GFSGBSN_250_spd_024.txt.gz
Wind_Speed
91 78 70 70 71 68 69 53 40 33 29 31 30 30 31 29 30 29 28 26 27 27 26 26 27 33 35 35 29 32 35 38 40 42 44 44 45 52 63 69 67 66 71 69 65 65 69
80 70 66 71 74 74 60 46 40 31 28 30 31 30 28 29 27 24 23 21 20 21 21 22 25 28 32 31 26 26 30 31 32 33 41 44 46 49 57 61 63 76 75 66 68 70 76
73 72 68 72 69 72 52 39 34 29 31 30 30 28 29 24 20 20 17 15 15 18 20 23 27 28 28 28 27 26 30 30 31 34 37 39 45 48 52 65 62 68 71 73 69 67 74
67 63 67 70 67 67 43 33 25 30 31 30 28 30 25 18 18 18 16 15 17 18 20 21 23 25 27 29 30 31 30 30 32 32 30 33 37 43 44 47 50 57 65 70 72 75 70
66 67 68 66 68 58 36 26 26 31 31 26 26 22 17 17 18 17 17 18 19 19 20 21 22 24 26 28 28 29 29 28 28 29 32 31 30 32 34 38 39 41 47 56 63 68 66
65 63 68 63 66 47 31 25 27 32 26 24 20 16 17 19 18 19 20 20 19 20 21 21 22 24 26 26 26 23 24 25 24 24 25 25 26 31 34 37 38 38 40 45 48 52 55
67 64 67 63 57 39 26 26 29 28 23 23 16 17 19 19 20 20 20 20 21 21 21 22 21 22 23 25 25 23 23 23 23 23 24 25 26 28 28 31 33 35 39 45 43 46 46
66 66 61 60 47 32 25 27 27 23 25 18 18 19 20 19 23 22 24 23 25 25 27 29 27 27 27 25 24 22 20 19 20 20 22 21 21 23 26 27 30 33 35 36 31 33 34
65 64 57 55 39 29 28 28 25 21 21 17 20 23 24 26 27 26 24 24 24 25 25 27 28 28 26 26 24 21 19 19 19 18 16 16 15 17 17 19 22 21 26 31 32 34 33
70 61 56 48 35 31 31 27 22 19 19 22 24 27 26 25 25 25 27 27 26 26 26 28 28 26 23 21 19 16 16 14 12 12 13 15 17 20 18 23 25 24 25 26 26 27 26
64 60 50 38 33 33 32 27 20 17 22 27 28 28 29 28 28 29 29 29 29 27 26 26 26 25 23 20 19 17 16 14 17 18 17 17 16 15 16 15 17 17 19 22 24 27 28
56 50 41 37 32 36 30 23 21 21 27 32 34 33 31 30 31 32 32 30 28 26 25 24 24 24 22 20 20 21 19 17 17 14 15 13 11 10 9 11 13 15 18 21 22 26 28
56 37 41 37 38 38 28 23 22 28 34 38 36 34 32 33 32 32 31 32 30 27 26 26 26 23 22 20 18 16 15 13 11 10 9 8 9 9 9 9 10 10 9 9 10 10 8
38 37 42 37 43 40 29 26 27 36 41 39 37 33 34 33 33 33 33 33 31 27 28 27 26 23 22 20 20 18 16 13 11 10 9 8 9 9 9 7 6 4 0 5 8 9 10
36 41 43 44 47 39 29 29 35 42 45 41 36 34 32 32 33 34 33 32 29 30 29 26 24 23 22 20 16 13 11 9 10 9 12 15 14 12 9 6 2 2 6 9 11 14 14
45 46 45 49 48 38 32 36 41 47 45 39 35 35 34 34 35 33 32 31 29 28 26 26 24 21 19 17 13 10 11 12 12 17 17 13 10 6 3 1 3 6 8 10 14 17 16
50 48 52 53 47 38 39 42 48 48 44 37 37 37 36 36 35 34 31 28 26 25 25 22 21 19 18 15 11 13 11 14 16 15 12 10 6 3 3 5 8 10 12 15 17 20 25
51 52 56 54 46 40 46 51 51 45 42 40 38 38 38 37 35 33 29 28 26 24 21 21 21 19 17 13 10 12 14 15 13 12 11 10 9 8 9 11 13 15 17 19 21 23 28
51 59 59 55 46 46 54 55 48 44 43 42 40 39 38 37 34 32 30 28 25 22 20 20 20 18 15 13 13 15 14 13 14 12 12 12 13 13 14 14 14 14 18 23 27 32 33
59 60 60 52 47 53 61 52 48 46 44 42 40 39 38 35 34 31 30 28 25 22 20 20 20 17 16 15 14 14 13 13 14 15 15 16 17 17 17 17 18 18 20 26 29 33 38
65 62 57 50 52 60 62 50 47 45 43 42 40 42 40 36 35 33 31 29 26 23 21 20 19 18 18 17 17 15 15 15 14 14 16 17 18 18 18 19 22 25 29 32 35 37 40
64 63 54 52 57 64 59 49 48 45 42 42 42 41 40 36 31 30 29 28 26 23 20 18 18 21 23 22 19 17 15 15 15 16 17 18 19 19 21 23 26 31 35 37 38 44 45
67 61 54 54 62 63 58 46 46 47 42 41 43 41 38 36 33 30 27 26 28 26 23 20 22 23 22 19 17 17 18 17 19 19 19 20 21 23 25 27 30 34 36 40 44 50 50
67 60 56 53 65 63 58 50 48 47 43 45 46 41 39 37 35 33 27 24 27 28 27 24 25 21 17 18 18 16 18 19 19 21 22 24 24 26 29 30 30 35 41 45 48 54 55
66 60 56 52 66 63 59 52 49 43 45 49 45 44 41 39 35 32 24 28 30 29 29 26 23 22 22 22 21 20 21 22 23 26 27 26 27 29 30 33 36 40 45 49 53 58 60
64 60 57 53 68 61 61 53 53 46 46 48 46 44 39 34 30 31 28 30 31 30 28 27 25 26 25 24 24 25 25 25 26 29 31 29 28 32 39 41 44 48 52 54 59 63 64
63 58 57 52 59 65 61 53 53 47 47 48 47 45 40 37 34 32 28 31 32 33 30 29 28 27 27 28 26 24 20 21 24 27 31 35 38 42 46 48 50 52 56 59 64 66 66
63 59 56 54 54 66 63 54 51 48 43 48 49 45 42 40 34 30 28 30 34 36 33 31 30 30 28 22 22 24 25 27 29 34 38 41 45 50 54 57 56 60 61 65 68 68 71
60 59 56 58 56 64 64 58 51 49 46 45 48 46 44 40 34 30 28 30 31 37 39 34 33 32 29 30 31 32 31 34 37 38 45 48 54 57 59 61 64 66 67 69 70 72 76

GFSGBSN_250_spd_027.txt.gz
Wind_Speed
83 87 81 81 81 82 75 70 68 66 67 61 52 39 35 38 34 33 33 32 29 30 29 32 34 38 40 41 39 35 34 33 33 34 34 36 37 35 41 44 48 54 62 61 55 58 61
90 86 80 82 83 80 76 70 70 64 64 59 44 32 35 35 33 33 32 29 28 27 26 29 32 35 35 37 39 34 29 28 30 34 36 32 34 34 36 45 56 66 56 60 59 57 55
94 89 79 80 80 79 74 69 66 62 59 55 35 32 34 35 34 30 26 25 23 20 24 26 30 33 34 35 34 31 26 28 31 37 40 40 39 40 44 46 56 59 63 62 69 63 63
91 84 84 82 72 73 70 65 60 59 53 47 33 34 34 37 30 24 21 18 17 21 23 24 28 29 31 34 33 30 28 32 34 35 38 34 36 38 40 44 45 50 59 59 69 63 64
94 85 83 79 68 67 68 63 59 56 48 40 34 32 33 32 23 19 16 17 19 19 20 23 27 29 31 34 36 36 34 31 28 28 27 28 27 28 32 34 42 44 49 56 61 65 67
92 89 84 72 60 62 63 53 56 50 44 36 30 30 27 22 18 16 19 19 18 18 21 22 24 27 28 31 30 27 24 26 27 26 24 23 27 29 29 30 32 34 38 44 51 57 60
89 87 79 69 57 61 58 50 53 46 40 30 30 25 21 15 16 19 19 20 20 20 21 23 24 24 24 24 24 26 27 25 25 26 29 30 30 26 24 26 31 33 35 34 36 35 37
84 77 67 66 54 59 49 51 49 40 36 28 28 20 14 14 18 19 21 23 25 25 25 25 27 27 27 28 28 28 28 29 28 27 25 26 23 22 24 26 27 30 30 31 33 31 33
85 77 78 65 59 59 47 50 45 37 31 27 23 17 16 20 23 24 23 24 23 24 25 24 24 26 28 28 28 29 28 27 25 23 22 21 23 22 22 22 22 24 25 26 27 27 28
87 78 72 61 58 50 35 43 38 38 27 26 19 17 23 24 25 23 23 22 23 23 23 24 25 26 26 25 25 24 23 21 19 20 18 19 17 16 16 16 17 21 23 25 25 24 25
74 75 66 62 55 41 43 40 35 36 27 23 18 24 25 24 25 25 25 24 23 23 24 25 26 27 27 25 23 22 20 19 17 15 15 16 14 16 17 19 21 22 22 23 25 23 20
72 70 65 60 51 32 36 36 38 33 26 20 23 27 26 28 27 27 27 27 27 28 26 26 25 26 25 22 19 20 19 17 15 15 16 15 17 18 18 17 18 20 21 21 20 18 15
68 67 66 58 48 34 36 33 40 31 22 22 30 30 30 31 29 30 29 29 29 28 27 26 25 22 22 21 19 18 16 17 18 17 17 18 17 16 16 16 15 13 11 9 5 3 1
64 66 60 51 38 30 35 39 40 28 22 30 33 34 34 32 31 30 30 29 28 27 26 24 22 20 22 20 18 19 20 19 19 16 14 13 13 12 11 10 7 6 5 2 3 5 7
64 63 57 49 39 36 39 47 39 27 29 35 38 36 34 31 32 31 29 30 29 25 24 24 25 24 21 21 22 20 18 16 14 13 13 12 11 13 11 9 8 6 4 3 5 8 11
60 57 49 50 36 45 48 50 38 30 36 41 42 38 34 32 30 30 30 31 30 29 28 27 23 24 26 24 21 18 16 15 14 14 16 17 16 14 10 8 5 3 4 7 10 10 14
57 52 48 40 47 47 56 49 38 35 43 46 41 38 34 32 31 32 31 28 25 25 25 25 27 27 24 22 18 15 14 14 15 19 19 16 14 12 8 5 5 7 10 12 13 15 18
51 50 48 46 52 56 56 47 39 41 49 47 41 35 34 32 33 34 31 29 26 26 27 28 26 24 22 19 13 13 13 14 20 19 17 14 12 9 7 8 9 12 12 14 17 19 22
51 51 53 55 58 61 54 45 41 46 53 47 41 40 35 35 37 34 33 30 28 28 28 26 25 22 20 17 14 14 15 18 18 17 16 14 12 11 12 13 15 17 17 18 19 24 28
48 54 58 61 64 60 51 46 46 52 55 48 40 38 37 38 39 35 33 32 30 27 25 25 25 22 20 17 15 15 16 17 17 17 15 14 14 16 17 19 19 18 19 21 25 29 31
55 56 61 67 65 57 50 49 50 55 52 47 41 38 40 38 37 36 34 31 28 27 25 25 25 22 20 18 16 15 16 17 17 16 16 17 18 19 20 21 21 20 21 25 29 30 32
56 59 65 69 62 56 51 53 53 57 50 44 41 42 43 42 40 38 34 31 29 26 25 24 24 23 20 17 15 15 16 15 14 15 16 17 19 21 22 23 23 25 27 29 29 33 36
57 64 69 67 59 55 54 56 58 54 47 45 43 44 43 41 39 37 34 31 30 27 26 24 23 23 20 17 19 16 16 19 20 19 19 21 21 22 24 23 24 30 31 30 34 40 44
63 68 70 62 58 52 58 62 55 52 50 45 43 43 43 42 40 39 35 33 31 28 27 26 25 22 18 17 21 20 21 20 19 21 22 23 23 24 27 26 26 32 34 35 39 45 49
69 69 65 59 55 53 62 61 56 52 48 48 45 44 46 45 43 36 33 32 31 31 30 28 27 23 21 21 22 21 20 21 23 26 27 28 27 28 28 30 28 35 41 42 45 50 55
69 67 62 56 51 58 66 60 53 52 49 48 46 45 46 45 38 36 34 32 31 30 31 31 30 28 26 25 24 25 25 26 25 29 31 30 28 28 30 32 35 41 47 51 53 55 60
68 64 59 53 53 62 66 55 52 50 52 50 48 47 47 43 40 37 33 33 33 30 30 30 31 32 30 28 27 28 26 28 30 30 30 26 28 32 36 36 39 47 53 56 58 60 65
67 64 55 52 59 63 66 53 49 48 48 51 48 47 47 42 39 37 35 36 36 33 31 31 31 32 32 31 31 31 30 30 30 30 32 34 36 39 41 44 46 53 57 58 62 66 71
67 63 53 52 63 60 64 56 51 48 46 45 47 49 49 45 41 39 37 37 36 33 33 33 33 35 34 35 35 34 32 32 33 34 38 39 44 45 49 53 56 58 59 63 67 71 70

GFSGBSN_250_spd_030.txt.gz
Wind_Speed
78 70 71 68 71 76 78 77 77 78 80 81 75 78 74 73 60 42 36 37 37 36 36 38 39 39 38 37 36 34 33 32 31 28 22 26 29 29 29 30 32 36 40 40 50 49 55
77 75 76 74 72 78 78 84 76 79 80 77 74 71 71 69 52 40 37 38 37 37 33 33 35 35 36 33 33 31 33 32 29 26 24 27 28 30 31 32 34 42 42 43 48 49 41
78 76 79 78 81 82 80 84 79 78 76 73 68 69 67 59 46 40 37 37 38 35 30 31 31 32 31 31 32 34 33 32 28 25 23 28 29 29 32 35 37 40 44 44 46 52 53
84 82 85 85 82 86 85 86 78 77 72 67 67 66 63 49 41 37 40 36 30 28 27 25 27 28 28 32 33 34 34 30 26 26 29 31 31 29 30 33 31 33 35 39 48 54 56
86 89 88 89 89 90 87 85 74 73 71 67 63 61 59 42 36 38 39 30 25 22 20 20 21 22 25 30 31 33 34 32 30 29 29 32 34 33 30 31 33 34 34 37 38 42 53
93 94 97 92 93 93 82 80 70 68 65 69 58 59 51 37 35 35 29 23 18 15 14 17 17 21 24 29 31 35 35 31 27 24 23 25 29 31 29 32 33 32 36 38 42 44 45
98 102 104 97 93 92 85 71 67 62 60 55 52 56 43 33 35 27 22 17 16 13 15 16 19 23 23 26 29 28 26 24 21 21 23 23 25 26 27 29 30 30 30 32 38 40 42
111 110 104 93 91 84 77 65 62 58 55 51 48 44 37 31 27 20 16 14 15 16 17 18 21 22 23 25 25 25 23 22 23 23 24 23 24 26 26 28 29 28 28 26 29 30 31
110 96 91 87 87 81 72 61 61 58 51 45 43 35 33 31 23 19 15 18 17 17 19 20 21 24 25 26 26 26 26 26 26 24 22 23 23 25 25 24 24 23 23 23 25 25 26
91 82 80 80 82 79 66 63 58 50 39 42 35 28 31 28 21 19 20 19 18 20 20 21 21 24 26 27 26 27 25 24 24 25 23 22 22 23 23 23 21 20 20 18 17 18 21
92 78 73 75 77 72 63 61 52 39 36 33 29 27 30 25 21 22 19 19 18 19 17 20 22 23 24 24 23 24 23 22 20 19 18 18 16 16 17 18 18 18 18 17 16 17 18
89 80 75 72 72 70 60 57 44 33 33 30 27 27 27 23 25 23 22 18 19 20 21 22 22 23 23 23 22 23 20 19 18 16 15 15 16 17 16 16 15 14 14 13 13 14 17
89 75 67 71 67 66 59 50 36 28 27 29 27 28 24 27 27 23 21 22 23 23 24 26 24 22 21 23 22 21 21 18 19 19 17 15 17 16 15 16 15 14 13 12 13 11 9
82 72 73 71 65 64 57 45 34 27 23 28 29 29 27 30 26 25 25 25 25 25 25 22 23 24 24 24 22 20 19 17 17 15 15 16 16 17 17 16 14 13 11 10 9 9 8
86 68 68 72 69 61 52 42 33 25 24 31 32 29 33 30 28 29 27 27 26 26 26 25 23 24 24 21 19 17 17 17 16 16 16 16 16 17 15 13 11 11 10 8 6 6 6
77 69 63 71 66 59 47 41 34 27 30 36 33 32 34 33 32 30 28 28 29 28 27 25 26 25 22 19 19 19 19 18 17 17 16 16 16 14 12 13 12 10 8 6 5 8 10
68 60 63 65 63 56 50 48 41 33 41 40 36 36 37 36 33 32 30 29 28 28 26 27 24 21 20 20 19 18 17 15 15 15 14 14 14 14 14 12 10 7 5 7 9 11 12
62 47 58 62 62 56 50 45 42 44 46 40 41 42 39 35 33 32 29 29 28 27 25 23 23 24 22 20 18 15 15 15 16 17 18 17 15 13 11 9 7 7 9 12 14 15 17
65 61 56 59 52 52 50 51 48 50 49 42 45 44 38 40 33 32 31 30 28 28 24 25 25 24 23 21 19 17 17 17 18 20 19 18 17 13 10 8 10 12 16 18 19 20 22
62 54 49 55 57 52 55 52 52 54 48 48 51 45 42 39 35 35 34 32 28 28 28 27 27 26 24 23 19 15 16 16 18 19 19 17 15 12 11 12 15 17 19 20 22 23 26
47 49 51 56 56 54 51 53 57 55 48 50 51 44 42 33 35 35 35 32 30 30 30 28 28 27 26 23 18 16 16 17 18 19 17 15 14 13 15 17 19 21 23 24 27 29 31
45 52 55 54 54 52 55 60 60 53 50 54 51 42 42 40 40 39 37 34 33 32 30 28 29 27 24 20 17 15 14 15 14 14 16 16 17 17 18 20 21 23 28 27 31 32 32
46 50 54 54 55 54 60 62 58 51 55 57 49 46 44 42 39 38 37 37 35 32 29 27 28 26 24 21 17 16 15 14 16 19 21 21 20 19 22 23 22 30 31 31 33 32 34
49 53 55 56 59 63 65 63 54 52 60 57 48 48 43 42 41 43 41 38 35 31 29 28 27 25 23 21 19 20 20 21 23 24 23 23 24 25 27 27 25 34 37 35 32 35 40
50 52 58 62 68 68 65 59 55 56 60 58 48 47 45 45 47 43 39 38 36 31 30 28 26 25 24 23 23 24 25 25 26 26 27 28 29 29 31 33 29 35 39 36 37 40 48
55 59 62 70 71 70 62 55 57 59 58 54 50 46 47 49 45 43 41 39 36 34 31 28 27 26 25 25 26 25 25 25 24 29 30 31 31 32 35 32 28 37 41 40 41 42 53
59 62 70 69 69 65 57 55 56 62 56 53 50 48 49 48 44 42 41 40 37 35 33 31 30 29 28 29 28 28 29 29 30 32 34 33 34 37 36 31 30 39 41 44 47 51 56
62 70 69 68 65 60 53 56 58 57 52 53 52 50 49 47 46 43 42 41 39 36 33 30 30 31 32 33 33 34 32 33 34 35 36 38 39 38 36 38 38 42 46 50 55 59 64
69 70 66 63 59 55 53 59 58 58 56 52 50 49 48 48 47 45 44 43 40 34 32 31 31 32 32 33 34 36 36 37 37 36 39 41 44 42 46 47 46 48 53 58 62 65 68

GFSGBSN_250_spd_033.txt.gz
Wind_Speed
79 77 82 74 76 74 73 68 64 64 68 67 75 80 81 85 80 75 77 70 46 41 39 37 38 36 38 37 32 32 33 34 34 34 32 28 28 26 24 21 22 24 29 31 31 32 35
83 86 84 73 77 68 69 72 67 66 71 76 78 81 81 86 74 77 73 66 42 38 40 42 39 30 33 33 27 27 33 33 31 30 28 26 24 23 25 27 26 26 26 29 30 32 35
87 88 82 84 71 74 70 68 71 73 75 76 81 82 83 82 72 75 66 62 41 41 41 40 36 28 28 26 24 26 31 31 30 29 26 22 26 27 27 24 26 24 23 26 28 29 31
89 82 79 83 76 74 72 70 70 72 77 81 84 81 83 76 74 70 63 53 43 44 38 34 32 24 23 22 23 26 31 28 29 29 26 24 28 25 25 27 28 27 25 25 28 32 33
94 77 80 81 84 78 75 77 74 76 79 79 85 79 82 70 72 67 57 48 42 38 32 28 24 19 20 21 23 27 29 27 31 29 27 26 27 28 25 23 23 24 25 26 26 36 38
91 79 78 78 82 81 80 78 79 79 80 81 83 76 77 65 67 61 53 45 39 32 23 19 15 14 17 21 24 28 29 30 33 29 27 29 28 27 26 24 24 24 29 31 31 34 39
92 83 82 79 82 83 84 83 83 84 82 83 79 74 69 60 65 59 44 37 32 21 16 15 14 12 14 19 24 27 30 31 29 25 24 24 29 28 27 28 29 28 28 30 31 34 36
88 87 90 85 86 86 89 90 90 87 85 83 75 70 61 60 59 50 35 32 23 16 15 12 11 13 13 17 22 26 26 27 25 23 23 23 23 26 29 30 28 29 31 31 31 31 32
98 93 89 93 89 92 91 95 98 92 90 80 73 65 57 53 51 37 28 26 19 16 12 12 14 15 16 19 20 21 24 23 24 24 24 24 23 24 25 25 24 23 23 26 27 27 28
111 109 105 102 101 97 101 101 99 95 88 76 68 60 48 50 44 28 24 21 16 16 12 14 15 17 19 23 27 29 29 27 25 23 20 20 21 21 21 22 22 23 23 24 25 25 26
127 124 121 113 108 101 100 99 93 91 82 75 60 54 43 41 32 24 20 20 17 17 12 14 17 20 22 24 26 27 24 22 22 21 21 21 22 23 22 21 20 19 22 23 23 20 23
129 126 121 114 110 103 85 88 84 82 76 67 52 43 42 37 27 21 21 20 19 18 15 16 18 20 22 23 24 23 23 21 20 21 21 21 21 20 18 18 20 22 22 19 18 23 23
111 113 114 111 102 92 82 75 76 73 68 53 42 34 37 29 22 19 22 20 19 17 18 19 21 21 21 22 22 22 22 23 23 22 20 18 18 18 19 18 17 19 19 20 21 17 14
99 100 97 99 91 87 81 75 68 66 64 40 39 32 33 22 20 20 23 23 21 18 19 21 21 21 20 20 20 21 22 22 20 19 19 18 17 17 15 13 12 11 12 12 10 9 6
90 90 92 90 85 80 76 74 67 65 59 41 34 34 27 22 22 23 26 24 22 21 22 23 22 22 23 23 24 23 23 21 20 18 16 14 14 14 13 11 13 13 14 12 12 9 6
76 76 81 81 72 71 72 72 67 63 49 41 39 37 25 23 25 28 27 24 24 25 25 24 25 25 23 24 24 24 22 18 15 14 14 14 14 13 13 14 15 16 15 12 9 9 9
69 74 74 71 66 64 66 67 70 60 50 43 40 36 28 24 28 30 29 29 28 27 26 25 24 22 24 25 21 18 16 14 14 14 14 14 14 14 14 16 15 13 10 8 8 7 10
65 69 73 70 64 61 62 69 69 60 51 44 45 35 30 30 35 35 33 29 30 28 27 28 26 24 22 19 17 16 15 16 15 14 13 13 13 15 17 16 14 10 8 7 8 10 12
64 68 73 69 65 60 62 69 63 58 56 50 48 41 35 36 39 40 34 29 30 30 30 28 26 24 23 19 18 18 17 14 13 13 15 16 17 17 16 13 10 7 8 10 12 14 17
65 69 65 59 59 58 61 65 62 61 59 53 53 45 38 43 45 40 35 33 32 32 30 27 26 25 22 21 20 16 14 14 15 15 16 17 16 14 13 12 11 10 13 15 16 19 22
62 56 56 56 55 57 63 65 65 65 56 52 52 42 46 43 42 40 37 36 33 33 31 29 28 25 24 23 21 17 15 15 15 17 18 18 17 16 14 13 14 14 16 20 20 24 27
57 54 50 48 57 63 66 66 62 64 53 53 49 47 49 50 47 40 38 37 33 31 31 30 28 26 25 24 21 17 16 16 17 19 19 17 16 16 17 17 15 18 23 24 25 29 30
55 57 55 49 56 63 65 63 65 58 53 56 49 58 53 49 47 40 42 39 35 33 34 31 29 28 27 25 23 20 18 18 18 20 21 21 21 20 19 19 18 25 29 29 31 32 32
55 52 51 53 61 63 63 62 57 54 59 55 53 58 56 50 45 46 44 40 37 35 33 33 31 29 29 28 26 23 21 21 22 22 23 23 22 22 25 25 24 32 36 36 32 34 35
52 51 52 55 63 61 57 56 57 59 61 56 62 59 55 51 47 47 44 40 37 36 36 34 30 31 31 29 27 24 24 25 25 26 27 27 27 27 29 31 31 35 40 42 38 37 38
54 53 57 58 59 60 59 59 59 63 60 57 62 59 54 51 47 48 44 41 39 38 37 34 31 30 31 30 28 27 26 26 27 29 29 29 29 30 33 33 34 41 44 43 42 40 42
63 60 60 61 61 60 59 60 62 61 58 63 62 58 55 50 48 47 43 42 41 39 38 34 31 31 30 29 29 29 28 27 28 30 31 31 31 33 36 36 37 42 44 45 45 44 44
61 63 64 62 61 59 61 63 63 59 60 63 61 58 54 50 49 47 45 43 42 40 38 35 32 32 30 30 29 28 29 29 31 32 34 35 36 38 40 41 41 45 47 48 48 49 53
61 63 63 64 62 65 66 62 60 57 63 65 56 56 53 50 50 48 46 43 42 40 39 37 34 33 32 31 31 31 34 34 36 37 40 40 42 43 46 46 46 46 47 49 53 57 61

GFSGBSN_250_spd_039.txt.gz
Wind_Speed
55 53 55 54 53 55 59 58 60 62 61 63 64 68 71 66 69 74 69 73 73 76 83 83 85 77 54 47 38 33 35 36 31 30 32 31 29 26 22 23 22 23 28 27 31 31 39
60 57 60 59 58 61 61 62 64 66 65 66 66 70 73 68 69 71 72 73 73 76 83 86 86 74 52 43 34 28 26 26 26 27 35 35 30 24 21 21 24 27 26 29 30 33 30
61 62 61 62 65 64 65 67 70 69 70 66 67 73 73 68 71 69 67 74 77 80 81 85 80 69 54 39 30 23 20 20 22 24 27 31 28 26 26 28 25 24 30 33 28 27 23
67 67 67 67 66 65 66 69 71 74 75 69 70 75 75 68 71 68 69 72 75 81 81 86 74 63 48 36 26 21 17 18 24 27 25 29 27 31 30 30 29 30 32 30 26 25 22
72 71 70 67 68 69 70 71 74 74 77 74 75 76 74 69 71 68 68 71 73 78 81 82 71 57 41 34 24 18 15 19 25 28 30 29 30 34 30 29 32 30 29 28 19 18 21
76 73 73 72 71 72 72 74 74 77 78 78 79 80 74 67 70 69 70 73 76 78 82 78 63 51 36 33 24 16 16 20 26 29 30 32 36 34 33 31 36 31 30 24 17 19 20
85 83 82 79 76 77 76 76 76 75 76 80 80 77 72 71 69 66 70 73 75 76 81 71 58 45 34 29 21 14 18 22 26 32 32 32 38 37 38 35 32 27 23 21 20 21 21
92 88 86 84 87 86 83 80 80 79 80 81 78 76 74 69 72 70 70 71 74 75 78 67 55 41 29 23 18 14 21 25 31 31 33 37 36 34 35 32 26 26 24 25 25 25 22
97 93 91 91 86 86 85 82 80 80 81 81 78 73 73 67 72 70 72 76 75 78 78 67 52 37 25 18 15 15 24 30 30 34 38 36 35 34 33 27 25 24 25 25 24 23 24
100 100 97 93 94 92 94 85 83 81 81 80 76 72 70 70 74 70 72 77 75 80 75 65 46 31 21 16 12 15 26 30 30 38 38 35 31 32 30 28 29 26 27 25 25 25 27
108 104 104 101 92 90 93 90 88 84 80 79 76 78 76 72 76 71 72 73 73 78 71 54 36 26 19 13 12 15 26 29 30 34 34 33 29 31 29 28 29 27 27 28 31 32 36
112 102 98 97 86 90 87 88 89 86 86 85 81 80 81 78 76 73 72 71 72 76 72 48 31 23 18 13 16 19 21 27 32 33 31 31 29 27 26 29 31 32 32 32 32 32 32
109 108 102 101 95 89 92 83 91 87 87 88 85 84 83 81 76 73 72 73 68 74 61 42 27 20 18 13 17 18 29 35 34 32 29 25 26 27 28 27 28 28 29 30 32 31 28
113 111 112 105 100 97 97 96 93 90 91 88 90 83 84 82 78 73 75 75 62 70 55 32 25 21 17 16 18 19 27 34 33 32 28 25 23 25 26 29 31 31 28 25 23 22 20
111 108 111 111 108 104 103 102 97 96 93 93 91 86 83 83 79 74 73 65 65 72 41 29 22 22 18 20 22 21 24 27 29 29 30 28 28 28 28 30 27 25 22 20 19 21 21
109 107 105 108 113 112 109 108 103 98 95 94 90 89 87 79 79 75 72 68 65 59 36 27 23 24 21 22 27 27 28 28 29 31 29 26 27 25 26 26 24 21 21 19 20 20 20
101 99 103 104 111 114 112 110 108 101 96 94 91 86 84 79 84 75 74 70 64 47 34 25 24 22 21 22 25 29 31 30 29 28 25 23 21 23 24 23 21 20 22 24 24 21 21
98 93 91 93 96 97 97 102 106 101 103 98 94 90 84 82 80 77 74 78 69 45 33 27 25 23 24 23 27 27 29 27 25 23 22 22 24 24 23 23 24 25 25 24 22 22 21
91 89 92 94 96 93 88 92 98 98 95 88 91 92 89 84 76 76 75 67 52 44 34 30 28 26 28 28 27 28 28 27 25 25 25 25 25 24 25 25 25 24 21 21 21 22 22
78 72 85 87 86 89 91 93 93 96 88 91 93 88 86 79 82 78 64 51 51 43 36 32 33 31 29 30 28 26 27 27 27 26 24 24 24 24 25 22 23 23 23 23 23 24 21
68 71 73 71 78 85 87 92 93 87 85 86 88 75 65 70 70 60 52 54 50 42 39 39 35 31 32 32 30 30 30 30 28 26 25 24 24 24 23 25 25 25 24 24 24 24 26
59 60 63 68 77 78 85 92 94 80 80 78 69 67 64 71 68 59 55 57 50 46 46 45 40 36 35 34 34 31 29 28 27 25 23 23 23 25 26 27 27 24 26 26 27 28 29
55 59 64 67 71 78 81 86 78 78 73 67 69 68 64 62 59 58 59 56 54 49 50 47 42 38 35 37 36 31 30 30 27 24 24 25 28 28 29 28 27 28 31 28 29 33 32
49 53 58 65 69 74 77 75 74 70 67 66 62 56 59 59 57 62 62 60 57 53 50 48 42 39 39 40 37 33 33 31 28 27 26 30 30 29 30 28 29 34 32 33 34 35 35
46 46 50 55 58 61 62 64 64 66 63 63 57 59 63 65 67 69 65 61 61 53 50 45 45 42 42 40 36 34 34 33 29 28 28 29 30 30 31 31 34 36 37 37 37 40 39
45 43 45 49 54 57 60 59 64 65 60 59 57 61 67 68 68 66 62 64 60 51 51 46 44 43 44 40 38 37 36 35 30 29 30 30 32 33 35 36 36 38 39 41 42 43 45
45 45 46 47 53 58 63 66 66 62 60 59 63 67 67 72 73 66 62 60 59 54 52 48 46 46 42 40 38 38 37 35 34 31 31 32 35 37 38 38 40 41 42 43 45 48 50
46 46 49 53 57 59 61 63 62 62 60 65 66 69 69 69 66 66 62 62 55 55 52 49 47 45 44 41 37 38 37 37 35 34 33 34 36 39 39 39 40 43 44 47 48 49 51
48 51 54 58 61 63 63 64 63 62 67 70 68 66 68 70 62 61 62 58 57 55 50 50 48 45 42 39 39 37 38 39 38 37 37 38 39 40 41 41 42 43 45 46 49 52 54

GFSGBSN_250_spd_042.txt.gz
Wind_Speed
67 65 64 58 55 51 49 52 51 52 51 53 55 57 58 62 64 66 66 70 75 76 75 69 71 77 83 83 74 51 39 27 23 27 27 25 26 28 27 24 26 27 28 27 21 30 44
67 65 64 57 59 57 54 51 54 55 54 56 59 58 60 63 66 68 68 72 77 76 74 69 71 74 76 78 66 49 39 27 21 27 30 28 29 28 29 21 23 19 21 19 29 28 33
65 65 60 61 58 58 56 56 56 55 56 57 58 59 63 66 67 67 69 72 78 74 71 70 71 73 76 79 62 46 37 26 20 18 24 30 30 28 26 24 18 25 25 27 25 25 27
59 60 62 62 60 58 58 60 59 60 60 57 59 60 63 64 66 66 68 73 73 73 72 73 73 74 77 75 58 45 35 24 17 16 22 28 36 28 30 29 28 26 26 29 25 28 30
69 68 66 65 68 66 64 65 63 60 59 59 59 61 65 66 66 67 70 72 73 71 68 70 74 74 79 71 53 39 31 21 14 18 21 24 32 29 28 25 28 30 30 28 29 28 27
76 75 75 71 69 69 69 65 65 64 61 59 60 62 66 67 69 69 72 75 74 70 67 71 72 71 75 62 46 35 29 18 16 19 23 23 29 34 29 28 33 32 37 31 26 26 20
82 80 76 74 73 72 71 68 66 65 67 65 65 65 66 69 70 71 75 73 70 66 67 69 71 73 76 52 38 32 28 16 17 18 23 25 32 37 33 33 30 30 33 29 23 19 21
84 84 82 81 79 75 75 73 71 74 72 71 65 64 66 70 71 71 71 71 68 61 65 69 71 70 69 45 33 28 26 14 16 21 29 34 38 35 34 29 28 31 30 25 22 21 23
89 87 85 84 84 83 81 82 79 75 74 71 70 68 71 73 73 71 71 68 64 66 65 67 68 67 60 37 29 27 21 14 20 24 30 32 37 36 35 31 32 30 27 24 26 25 25
98 95 93 88 87 85 85 85 85 81 80 76 76 73 74 77 75 74 68 61 62 66 65 70 69 63 62 34 27 23 17 17 19 22 27 30 34 33 33 30 29 26 21 20 20 24 22
104 102 99 96 92 86 85 86 90 84 81 79 80 79 78 77 77 77 74 71 67 67 68 68 66 61 46 28 25 19 15 20 21 22 28 35 35 36 28 26 23 22 19 16 20 21 25
109 105 103 101 99 94 90 88 87 90 87 84 82 82 78 79 78 74 75 72 70 68 71 69 65 60 40 25 22 16 15 17 22 24 34 27 27 24 20 26 23 26 23 22 24 26 26
126 119 111 108 104 101 98 93 95 92 90 88 84 85 82 81 76 73 72 73 72 70 68 67 63 51 38 24 20 14 15 16 22 22 31 30 27 26 28 23 20 22 22 23 24 33 34
119 115 117 116 109 110 106 105 98 97 91 92 87 85 85 83 80 79 75 75 70 73 69 68 58 55 35 25 20 14 17 17 22 28 29 28 27 28 24 23 21 28 29 31 31 36 31
115 114 114 107 103 95 99 97 91 95 83 85 86 88 84 89 87 82 77 73 73 74 69 62 53 47 33 27 22 15 17 18 26 31 31 29 23 25 25 26 29 26 29 33 35 37 30
114 111 109 106 100 104 98 93 100 91 93 80 86 86 88 92 90 85 80 72 72 74 69 59 57 52 38 27 22 19 18 19 27 27 28 27 26 30 30 32 32 31 31 33 29 28 27
110 111 107 105 102 101 98 102 98 97 94 92 86 89 87 91 92 86 75 76 76 71 65 60 58 49 38 29 24 23 23 22 26 31 33 29 34 30 32 33 31 32 32 28 28 27 26
104 105 106 109 112 109 105 103 105 104 100 103 86 86 94 87 85 82 75 75 75 69 62 59 62 45 30 29 23 22 29 32 32 33 33 31 35 31 30 28 29 29 30 28 27 25 24
99 99 102 105 107 107 108 107 108 108 106 98 87 90 97 94 82 78 75 73 73 64 64 62 56 45 30 27 22 20 23 27 33 32 29 28 29 30 27 30 29 31 28 25 25 26 30
90 92 96 97 99 101 103 105 109 110 106 101 100 100 94 88 83 78 78 77 74 69 66 62 58 43 33 31 30 31 28 34 33 31 33 30 31 30 29 31 28 29 27 28 28 29 30
77 82 89 89 93 94 95 98 103 110 107 103 99 93 93 88 81 81 77 76 70 68 64 55 50 38 37 31 31 33 31 33 34 35 34 32 32 30 30 30 30 29 30 29 29 31 25
71 73 76 76 78 90 91 90 98 105 106 100 93 89 84 88 88 81 79 74 71 67 61 43 45 41 43 35 30 34 32 31 33 33 33 32 32 30 30 30 31 29 30 30 30 28 26
65 69 67 62 67 74 79 88 91 93 97 88 82 83 79 77 77 78 67 67 64 62 48 46 47 46 45 39 34 33 35 35 35 35 34 31 31 31 31 30 28 30 32 30 29 28 28
54 57 59 61 61 63 72 79 89 88 86 66 75 71 67 64 66 61 66 66 55 51 46 47 51 50 44 38 39 36 36 37 36 35 34 33 31 32 31 30 29 34 31 31 31 33 32
48 53 56 59 60 60 66 75 78 87 56 65 68 65 59 56 60 64 58 50 48 43 42 51 50 50 48 44 39 39 39 39 36 35 34 32 30 31 32 32 34 35 33 35 35 36 36
44 47 49 52 52 55 62 66 73 56 59 64 63 59 57 58 55 52 56 47 39 39 47 48 54 54 49 44 43 41 42 43 36 35 35 32 31 30 35 35 35 35 38 38 39 38 41
39 41 44 46 47 52 60 63 53 61 62 61 59 58 57 57 57 63 54 40 41 38 37 43 54 53 49 49 46 45 44 44 39 38 36 33 32 32 34 36 37 35 40 41 42 45 45
38 38 38 41 44 49 51 56 61 62 60 59 56 46 32 46 59 58 55 54 53 44 44 63 54 56 49 52 49 47 46 43 41 39 38 36 35 34 33 34 36 40 41 44 44 46 49
38 37 39 45 50 54 56 58 61 60 62 61 58 65 31 60 51 49 53 56 61 50 50 58 63 59 54 51 49 46 46 43 42 40 40 40 38 37 36 34 38 40 41 44 49 51 52

GFSGBSN_250_spd_045.txt.gz
Wind_Speed
75 74 73 69 67 66 62 63 61 59 57 52 51 49 49 49 51 53 49 51 56 59 62 64 68 73 75 70 72 72 69 53 42 36 27 23 21 25 23 27 26 29 29 25 26 35 44
70 72 73 68 64 63 62 64 62 60 52 48 47 48 49 52 52 52 51 53 56 58 62 64 67 73 75 67 70 71 67 50 39 33 24 23 21 22 24 24 24 21 24 25 28 33 38
68 69 66 68 71 70 64 61 60 58 58 55 52 51 49 52 55 52 51 53 57 60 64 65 69 71 72 67 70 68 65 46 38 30 18 19 24 22 21 23 15 18 20 29 26 27 31
69 68 67 67 68 69 68 62 62 61 61 58 55 52 53 55 54 51 53 55 56 60 63 64 66 71 67 67 67 69 60 44 37 28 16 15 23 22 23 27 26 27 29 28 24 24 25
71 70 69 64 60 64 65 64 63 66 65 57 54 55 57 56 52 52 54 56 55 57 63 62 67 69 64 65 70 65 55 41 35 23 14 13 22 25 21 30 27 26 29 31 22 20 23
77 76 76 73 70 66 62 59 60 59 56 59 61 59 60 59 55 56 58 58 55 59 60 61 65 60 64 63 66 67 50 38 32 16 12 12 25 28 26 32 31 34 35 25 22 24 22
78 77 78 79 76 71 68 67 65 67 65 65 61 60 59 58 56 60 60 60 55 60 61 60 63 60 64 63 66 62 42 34 28 14 13 14 27 32 32 35 29 33 25 23 25 23 21
83 81 79 80 82 79 76 72 71 68 67 64 59 59 57 58 62 65 63 61 59 58 63 62 66 64 64 63 61 56 37 32 25 15 17 18 26 36 38 31 29 27 21 23 25 20 19
94 89 87 82 81 82 78 74 72 70 67 65 61 62 64 64 67 65 67 63 63 61 61 63 66 64 60 60 63 52 33 29 25 17 18 20 27 34 33 29 31 27 25 26 25 23 23
99 96 92 91 84 82 82 78 76 75 72 68 67 69 70 69 68 68 66 66 64 64 62 63 63 61 58 57 59 45 32 28 22 15 18 16 26 33 32 30 26 26 20 24 24 20 26
106 102 98 95 96 88 87 84 82 81 77 73 71 73 74 72 73 70 68 67 67 65 64 61 59 57 56 58 52 34 28 25 19 16 15 19 26 28 24 24 24 23 21 19 20 22 24
110 105 102 101 100 92 91 91 89 87 85 78 77 74 72 73 73 68 67 70 71 66 65 58 57 58 57 59 48 31 24 20 16 15 19 19 23 27 24 26 24 22 21 16 17 19 24
123 117 111 105 102 100 95 93 90 89 90 87 81 78 77 74 75 71 73 73 72 65 66 58 59 57 59 58 50 32 24 16 14 18 17 15 22 25 29 24 20 25 24 22 25 26 28
130 126 122 118 110 106 100 98 95 92 91 94 88 82 81 84 75 77 77 75 69 68 67 61 61 61 57 55 48 33 24 17 13 18 18 16 18 22 23 21 26 26 25 22 24 29 27
120 123 125 125 121 117 109 104 100 97 93 92 90 83 82 86 83 83 80 74 67 69 67 63 61 63 61 59 51 36 25 19 12 15 22 19 28 29 27 28 25 30 26 25 23 28 27
116 115 118 120 123 119 118 115 110 104 99 97 91 86 86 92 89 88 81 72 66 70 68 66 62 65 62 61 55 39 26 23 15 12 18 25 28 28 28 27 27 30 29 28 26 28 32
113 115 117 115 115 118 116 115 113 113 110 106 104 98 94 98 92 87 74 70 69 72 68 62 63 64 62 58 49 38 29 24 21 12 20 26 30 30 29 28 32 31 33 32 31 31 35
108 114 119 117 113 114 116 118 116 118 115 111 104 99 94 100 90 80 73 71 75 73 67 61 62 63 59 54 49 36 31 27 27 21 25 33 32 34 32 27 30 33 36 37 32 30 29
101 108 114 115 114 111 110 112 116 117 115 111 105 100 97 100 87 78 76 72 74 72 69 67 58 60 56 56 53 36 31 27 30 28 30 31 34 36 34 35 37 37 34 28 26 26 31
93 101 106 111 112 113 112 112 110 110 109 110 107 107 99 97 82 82 78 78 74 75 71 68 65 65 61 59 57 38 32 25 23 28 33 31 34 34 35 36 33 28 28 27 27 29 36
82 89 96 100 106 107 108 110 109 110 112 109 105 97 93 84 83 83 77 78 75 77 71 64 62 65 61 56 53 38 36 31 26 30 27 29 31 34 32 31 30 29 30 30 31 34 37
74 77 82 89 95 98 98 104 108 108 112 111 107 97 91 84 88 82 85 77 77 73 72 69 69 69 63 60 51 38 36 35 32 31 31 33 39 30 35 34 30 32 35 34 33 34 37
65 69 72 76 85 90 94 92 99 103 107 104 95 93 94 93 88 87 77 75 79 83 79 72 70 67 62 60 51 36 38 36 31 32 31 32 34 33 35 33 33 33 36 32 36 36 35
56 60 63 65 69 76 82 86 90 93 98 97 91 91 88 86 85 79 84 82 82 78 75 72 73 70 66 54 45 39 42 37 32 33 31 31 32 33 36 34 32 35 34 35 33 32 29
49 52 55 56 59 64 68 76 82 82 84 85 87 87 86 85 82 81 74 72 77 75 69 68 65 62 61 49 42 41 43 39 34 34 33 32 35 35 34 33 34 33 36 34 31 31 32
44 47 49 50 53 57 60 66 72 75 74 69 70 76 78 74 68 73 72 72 66 67 63 60 56 57 53 47 44 43 44 43 33 32 35 34 37 35 34 35 33 34 35 36 32 31 37
39 41 43 47 49 49 55 57 57 67 53 62 60 58 61 61 62 62 53 55 67 61 57 48 44 34 32 36 42 43 44 42 30 34 38 35 35 36 35 34 33 35 36 36 37 38 43
36 38 42 43 43 46 49 52 51 48 50 54 56 51 45 49 54 57 62 61 57 48 47 40 44 37 35 32 33 39 44 46 34 37 37 38 40 40 38 36 34 33 35 35 41 44 43
34 34 36 36 40 44 47 46 43 49 53 52 50 51 49 46 48 53 51 48 38 44 45 51 46 42 45 40 32 40 45 47 40 38 40 42 44 43 40 41 37 32 34 41 46 43 43

GFSGBSN_250_spd_048.txt.gz
Wind_Speed
69 70 70 70 73 71 70 68 68 66 68 64 60 58 57 58 53 50 51 49 46 47 46 48 50 52 57 63 66 64 69 72 68 55 45 39 29 20 19 16 20 37 34 28 23 23 26
73 72 70 70 75 75 74 71 72 67 68 63 63 58 57 57 54 49 48 45 46 47 47 45 49 51 57 62 65 65 72 73 67 50 42 35 22 16 15 19 20 21 20 24 24 28 33
70 76 73 70 69 68 68 68 66 66 66 61 60 56 53 57 50 49 51 47 48 46 46 46 52 55 58 60 64 67 73 72 65 48 42 29 19 16 16 21 23 23 21 21 22 28 28
74 69 72 70 71 67 64 64 64 63 61 62 62 53 53 57 58 58 57 50 50 46 47 48 53 55 56 61 64 67 70 70 61 45 40 22 17 14 14 16 19 18 19 24 30 29 32
73 75 74 70 69 66 65 65 64 61 61 62 61 54 55 58 58 61 56 52 50 47 48 47 54 55 58 61 66 66 64 67 57 45 36 19 12 11 13 20 21 23 26 29 32 32 28
77 73 77 76 74 69 65 62 62 61 57 58 59 56 62 61 57 54 55 54 50 47 50 49 51 54 58 59 67 65 61 64 54 43 35 21 8 14 18 24 28 30 26 30 31 26 22
89 86 88 79 78 74 73 66 64 62 59 56 56 59 55 60 57 59 60 53 47 49 50 50 55 54 56 58 64 63 57 60 53 39 31 22 13 17 22 23 32 28 25 25 21 16 16
102 99 94 91 82 76 74 73 71 68 63 62 59 58 58 61 62 61 59 51 47 51 52 51 53 53 55 57 63 56 53 62 50 36 27 20 22 20 24 21 28 22 25 24 17 18 18
101 94 97 96 88 86 80 78 76 76 72 67 64 62 63 64 64 63 60 53 50 54 52 52 53 52 54 56 61 54 54 55 45 31 25 18 20 16 23 23 23 18 21 21 19 19 16
102 96 96 97 91 90 85 81 80 77 76 70 69 67 66 66 64 62 57 55 52 55 55 57 52 51 55 56 58 52 49 49 46 32 22 15 17 18 26 29 26 21 24 21 18 19 20
107 103 101 101 99 94 92 86 83 82 77 75 73 70 68 65 65 61 59 57 54 56 52 52 52 51 56 56 59 53 47 49 42 32 24 15 10 17 23 27 26 25 22 18 16 21 23
106 109 108 104 103 102 96 92 88 85 81 77 76 72 71 71 69 61 63 62 60 57 55 53 53 52 58 60 59 52 47 50 37 31 21 17 11 16 21 25 26 24 23 23 22 28 30
110 108 110 112 107 106 102 102 97 95 89 85 81 76 76 76 74 66 68 68 64 57 58 52 55 53 60 59 54 50 47 54 41 28 22 12 11 14 17 20 25 25 21 20 23 26 26
112 111 107 108 112 112 107 102 99 100 95 89 88 85 81 82 77 73 73 70 64 63 63 59 56 56 58 57 51 49 49 49 41 26 19 15 17 14 15 19 25 22 24 25 26 24 23
116 115 113 111 109 108 116 111 102 101 100 97 93 89 82 87 82 79 74 70 68 65 68 60 54 60 58 55 50 49 47 46 37 28 21 17 20 16 18 20 20 23 25 23 25 28 25
113 119 117 116 114 112 109 113 113 107 102 98 97 93 89 91 84 79 73 66 65 69 65 60 58 59 55 51 48 47 50 47 36 28 26 17 22 23 22 23 23 26 25 24 25 30 29
104 110 119 117 116 114 115 111 111 114 111 104 99 96 89 93 87 84 69 66 68 71 68 61 62 55 54 53 51 47 45 47 41 28 27 22 20 25 29 29 25 26 29 30 29 33 36
96 100 108 115 118 116 115 113 111 115 116 112 106 97 96 95 88 78 70 68 73 74 70 67 63 55 54 52 50 51 51 51 47 35 29 30 24 28 31 26 20 22 28 29 29 32 36
86 91 97 103 115 118 116 114 113 116 122 121 116 111 105 102 91 80 73 71 74 78 74 69 64 60 56 53 54 53 52 51 49 40 31 33 32 30 32 29 28 28 30 32 37 37 36
77 80 85 92 104 117 117 117 114 114 117 123 123 118 112 105 95 90 83 80 78 83 75 71 66 63 57 56 57 54 52 48 46 36 33 33 35 34 33 29 29 29 31 33 29 30 31
71 73 74 82 95 106 115 115 116 116 114 118 124 121 108 101 92 91 89 83 79 82 75 70 66 62 59 58 58 59 54 52 55 34 33 33 29 32 36 35 29 24 28 30 28 29 31
65 66 70 74 83 96 104 109 112 115 116 117 113 106 105 99 96 96 94 86 80 84 76 69 67 64 60 58 59 52 53 55 55 39 33 35 30 30 28 31 29 26 32 34 28 31 35
59 62 64 68 73 84 97 99 103 109 118 109 108 102 98 94 96 98 90 86 78 82 74 73 70 63 58 58 62 60 60 56 56 43 35 39 34 31 34 34 37 30 37 33 35 34 36
54 57 59 63 67 74 85 91 94 103 103 102 104 100 95 87 89 87 86 84 79 80 73 70 70 62 62 62 62 63 60 56 57 49 37 36 32 31 31 33 29 37 32 35 36 34 36
48 51 54 58 62 67 74 80 88 89 85 94 102 101 94 89 85 85 84 82 78 80 75 74 67 66 67 67 66 66 61 58 54 48 40 38 34 32 30 30 30 34 34 36 33 34 35
44 47 50 53 57 60 64 71 77 76 77 80 87 89 94 90 87 84 84 82 81 81 81 77 75 72 69 66 66 63 56 54 49 46 41 43 36 30 29 30 30 37 34 35 33 35 36
39 42 44 47 50 54 57 61 62 62 71 74 75 80 87 87 85 83 81 82 81 81 75 73 70 71 69 63 61 56 54 51 47 40 42 42 36 31 31 30 31 36 34 34 37 40 38
36 38 40 43 47 51 54 57 57 57 65 64 62 70 77 86 85 80 80 76 73 70 68 67 68 64 63 59 58 54 50 46 42 39 40 42 35 32 33 33 31 36 36 39 39 40 38
32 34 37 42 47 49 51 51 52 53 57 58 57 62 70 77 76 75 73 70 67 69 67 66 62 63 60 55 50 46 42 39 35 38 36 39 36 34 34 31 34 39 42 43 44 41 40

GFSGBSN_250_spd_054.txt.gz
Wind_Speed
70 71 71 74 72 64 59 59 64 65 62 66 68 69 66 62 60 59 57 56 56 55 56 56 55 54 50 52 52 54 56 57 63 68 72 75 68 58 48 39 29 18 14 14 13 12 21
80 79 80 77 74 68 65 67 68 67 64 60 64 63 70 67 62 60 56 57 55 55 54 54 51 47 47 50 52 49 54 57 60 67 71 74 70 55 43 33 20 12 12 12 15 12 20
93 90 86 78 73 73 69 68 65 65 65 61 60 60 61 64 60 59 59 56 56 59 53 51 49 47 47 51 51 49 53 55 58 64 69 76 70 52 39 29 13 10 4 18 17 12 16
90 87 83 85 83 74 67 67 72 67 66 63 62 64 61 60 60 58 60 58 52 52 51 50 46 44 46 50 48 49 54 53 58 62 66 73 65 49 36 26 14 4 2 15 13 11 10
102 94 93 92 85 80 80 74 74 74 68 67 64 63 63 62 60 58 58 51 50 49 50 50 49 45 45 48 47 50 50 52 54 59 63 70 63 45 35 24 16 4 4 6 2 5 9
112 114 110 109 102 91 88 85 75 79 73 70 64 62 57 58 58 57 56 52 50 50 50 52 47 45 43 46 46 50 49 49 50 56 61 66 59 43 30 21 15 2 4 5 7 8 9
105 107 100 101 97 96 87 77 77 83 75 71 62 61 58 56 55 55 55 54 49 48 50 50 47 46 46 47 45 47 45 47 50 54 58 65 56 41 28 16 7 8 9 7 6 10 12
106 105 100 93 88 85 81 82 82 84 81 75 71 62 62 59 56 54 54 54 50 46 47 45 41 46 46 48 46 45 43 45 47 53 59 64 54 39 32 14 6 8 7 5 5 8 8
108 102 97 92 89 83 81 88 86 83 81 81 76 66 66 63 60 57 54 51 51 50 46 44 37 41 39 44 46 43 42 43 46 52 57 60 56 37 28 14 4 7 8 7 6 7 6
108 106 102 98 93 90 85 87 85 86 83 84 82 79 72 65 62 63 57 56 53 50 47 49 38 38 39 43 42 39 40 42 45 49 53 59 53 34 28 11 1 6 10 7 8 10 11
108 106 105 104 98 92 92 85 93 89 87 83 88 85 81 71 68 62 56 59 58 54 48 49 40 41 40 41 44 40 40 41 44 46 51 55 54 36 27 17 4 6 8 10 13 14 14
104 106 103 104 103 100 97 95 89 94 92 91 91 89 84 77 75 68 62 61 56 54 48 45 44 44 48 43 42 40 39 41 44 45 49 53 50 43 24 18 8 4 11 14 16 16 15
99 99 102 103 106 107 104 98 96 94 93 94 96 93 87 83 82 73 71 65 63 52 54 51 50 50 46 44 42 41 40 41 42 41 47 52 51 46 23 21 14 5 10 15 19 17 14
96 95 96 98 102 101 106 106 100 97 95 96 96 97 92 87 85 82 77 71 64 59 57 54 53 51 48 44 44 42 43 40 41 40 45 50 51 46 27 21 19 11 7 12 17 15 14
89 93 94 93 96 98 99 104 103 100 99 97 98 94 96 92 90 83 81 73 63 64 63 57 54 50 49 44 46 44 46 44 39 40 44 47 49 49 37 22 21 16 11 13 14 15 15
82 84 88 91 92 94 97 100 105 102 101 103 101 96 93 99 97 90 85 68 68 70 67 62 57 54 51 47 44 46 48 45 38 41 45 46 47 48 41 24 19 15 12 12 15 13 14
80 80 81 84 88 93 95 99 103 105 104 103 104 100 94 101 104 97 80 68 70 72 70 63 58 54 53 50 49 47 47 45 40 42 46 45 48 47 41 27 20 16 17 16 14 17 16
78 78 80 79 83 86 93 97 101 106 109 110 104 100 100 104 103 86 75 70 70 77 71 66 61 58 56 53 51 48 48 46 42 44 46 45 47 48 50 38 26 22 17 17 19 18 19
75 77 77 78 79 79 85 95 98 105 110 107 106 101 105 107 101 79 75 73 71 77 71 68 64 64 60 57 55 52 52 50 45 47 46 45 48 46 49 43 35 24 21 19 23 24 25
71 74 74 76 77 76 81 88 95 100 108 108 107 109 110 107 92 84 79 76 70 73 71 69 67 64 63 61 58 55 55 50 49 49 46 45 47 47 49 48 39 32 26 23 27 29 29
63 70 71 73 76 75 78 82 90 95 103 107 108 106 105 96 86 82 80 76 76 76 69 71 63 62 60 59 57 54 53 50 51 49 48 48 44 47 50 55 44 41 33 26 30 32 33
58 63 67 69 73 72 75 79 83 91 99 103 100 101 98 93 88 87 84 76 72 75 70 66 62 62 60 57 56 57 55 55 53 50 50 50 47 48 50 54 54 39 34 28 28 35 36
52 58 61 64 69 71 71 75 78 85 95 94 86 99 98 97 92 87 84 83 78 77 71 68 69 67 62 64 64 61 59 56 54 52 51 51 50 51 49 52 51 45 42 32 30 32 34
46 53 57 60 64 67 69 72 74 77 82 83 84 94 93 95 93 83 86 86 79 77 75 72 71 68 67 72 65 63 60 58 56 55 55 51 53 51 51 52 47 46 43 34 31 34 35
42 47 52 55 59 62 63 66 69 72 73 77 83 90 90 93 94 90 88 86 85 84 79 76 74 71 72 71 66 65 64 60 55 52 52 53 54 54 52 54 50 51 48 40 32 33 37
38 42 47 51 54 58 60 63 66 68 70 75 79 84 89 94 96 93 87 87 83 84 84 77 78 78 76 74 70 67 65 59 53 54 53 53 55 53 52 57 53 50 47 42 36 35 38
36 39 43 46 50 54 56 59 60 65 67 66 72 79 83 91 100 96 87 85 83 81 81 84 83 77 72 68 67 65 62 58 56 49 49 49 54 56 60 56 54 53 48 41 38 44 35
32 37 40 43 45 48 50 54 57 59 60 62 67 73 78 86 98 97 92 87 84 81 80 81 81 74 69 64 62 62 59 58 55 51 52 52 56 56 59 58 51 51 45 42 39 42 37
27 30 34 38 41 45 48 50 52 54 55 57 62 69 74 84 92 94 93 90 85 85 86 84 76 71 66 62 57 55 54 53 47 47 49 52 57 60 60 55 50 45 44 45 43 39 37

GFSGBSN_250_spd_057.txt.gz
Wind_Speed
76 73 66 70 72 75 65 59 57 58 58 58 55 51 50 53 55 55 58 58 56 51 52 49 50 51 52 52 47 47 47 49 52 58 59 66 72 73 74 64 56 36 22 17 12 10 14
77 74 71 72 74 74 75 70 69 69 62 58 55 52 50 53 52 53 53 56 51 57 56 52 53 49 50 46 46 45 44 48 52 56 59 65 68 71 72 61 51 32 21 16 10 11 12
82 80 73 71 78 77 80 73 75 75 74 66 60 56 52 54 56 52 50 53 50 51 51 50 50 50 48 45 44 41 45 49 51 53 58 64 67 67 66 56 48 30 20 9 13 9 11
95 86 84 83 79 83 84 84 83 81 69 65 67 65 57 58 58 54 51 52 49 48 51 51 49 48 45 44 43 44 46 44 48 50 54 61 64 63 65 51 42 26 18 11 3 7 3
93 99 95 91 91 90 92 91 91 87 77 71 75 70 74 64 62 57 52 52 52 47 48 47 48 43 41 44 45 46 42 42 46 49 54 58 62 61 59 44 41 21 11 6 3 2 1
106 97 97 96 96 97 99 96 91 92 86 81 80 76 68 64 65 60 56 53 49 51 50 47 45 40 43 44 44 43 40 43 45 48 50 54 58 59 59 38 35 18 10 3 3 4 3
110 109 107 104 104 104 105 101 100 91 89 85 86 84 80 71 69 62 59 55 48 46 46 48 45 41 43 42 40 40 40 42 43 46 46 49 54 58 58 39 31 12 11 8 3 2 6
104 107 111 109 106 101 102 97 96 94 91 89 85 83 77 75 70 66 61 58 51 45 45 45 43 42 44 38 33 34 35 36 39 42 45 46 49 52 55 39 34 7 7 4 5 5 2
107 108 104 101 99 97 96 93 96 96 92 94 90 87 79 71 71 68 63 56 55 47 42 44 43 41 39 30 31 30 31 35 38 40 43 44 47 50 51 42 32 11 6 7 5 2 10
109 106 107 107 106 103 102 100 98 95 90 86 82 80 79 76 73 71 67 58 56 54 45 46 42 40 38 34 31 29 32 34 36 39 41 43 46 48 52 41 28 20 5 10 6 7 6
105 107 106 105 105 105 105 103 98 94 92 86 79 77 81 80 75 73 70 69 58 55 50 48 45 40 40 36 35 32 32 35 36 36 38 40 42 43 49 44 25 23 12 11 9 8 9
96 97 99 101 106 107 108 109 104 95 92 86 81 77 80 81 81 77 74 72 68 59 53 49 50 45 43 39 35 31 35 37 37 36 36 39 40 43 45 38 29 20 17 14 11 11 14
93 94 95 97 99 100 102 103 102 97 94 91 87 81 80 83 86 83 81 75 73 56 56 54 53 50 43 40 34 34 38 37 36 37 36 38 38 40 43 41 34 22 19 13 14 13 16
90 91 92 92 92 93 95 96 97 99 96 96 92 89 84 85 89 86 83 81 72 63 61 56 52 50 45 39 35 39 40 37 38 37 36 36 36 38 39 40 39 22 16 13 12 14 18
80 83 85 86 88 90 91 93 95 96 95 95 99 94 89 89 93 88 86 79 67 66 66 61 54 53 50 43 43 44 41 40 37 36 35 36 33 36 38 39 40 32 16 14 14 15 17
75 77 78 79 80 82 86 89 91 93 95 95 99 95 93 96 98 97 89 74 69 69 68 66 61 57 54 50 46 44 42 42 39 36 35 36 33 36 37 39 38 36 19 15 14 17 19
72 74 76 76 77 76 80 84 88 91 93 96 101 98 92 103 102 102 86 76 75 73 70 69 64 59 58 53 50 46 46 46 40 37 37 37 35 35 37 39 37 37 33 19 16 20 19
70 71 74 75 75 75 74 80 84 89 92 96 99 97 96 105 104 90 87 78 81 77 74 71 64 63 60 57 53 48 46 46 41 37 40 40 39 38 37 38 40 40 35 28 20 21 23
67 66 69 73 73 73 73 76 79 85 90 92 93 94 103 110 98 85 82 82 80 81 76 72 69 65 60 59 56 51 49 48 45 39 42 42 43 40 36 40 40 44 40 35 28 24 28
64 63 66 70 72 72 72 73 76 81 85 90 91 95 107 108 86 89 88 82 79 80 80 74 71 68 61 61 58 56 53 52 49 44 46 44 43 40 37 38 41 42 44 39 32 21 31
58 59 61 64 68 70 71 72 73 77 81 87 89 93 93 85 77 81 84 81 80 80 79 77 72 69 61 60 60 59 55 52 50 49 48 44 39 40 40 40 41 42 43 48 34 28 26
51 54 57 60 65 67 68 70 71 74 80 80 84 84 83 79 81 86 85 81 77 79 80 75 69 64 61 59 60 57 54 52 49 46 44 43 40 42 41 42 42 41 49 46 41 32 27
44 47 51 55 60 65 67 69 70 69 71 68 76 79 80 79 83 87 81 79 77 77 75 69 68 69 64 63 64 58 54 50 47 46 46 43 42 44 44 44 43 39 50 51 44 39 32
38 42 44 48 54 60 62 65 65 62 61 67 75 78 76 78 83 83 87 80 80 79 80 74 71 69 68 69 63 58 55 53 51 49 47 45 45 46 46 47 42 48 53 54 47 43 36
34 38 41 45 50 55 57 60 59 55 59 65 73 71 72 77 85 89 90 83 80 84 84 79 76 75 73 67 62 59 57 56 53 51 49 48 47 49 49 48 43 41 54 51 50 44 42
28 31 36 41 45 47 51 53 55 53 58 66 66 65 69 78 82 89 94 90 82 82 90 83 80 75 76 71 65 60 58 58 56 52 49 52 52 52 50 48 39 41 47 51 49 46 42
26 29 33 37 42 46 48 50 52 52 61 64 62 62 67 77 82 86 93 93 90 85 86 88 85 81 79 71 65 61 57 55 53 49 49 52 55 53 50 46 41 41 48 56 47 47 49
25 28 31 36 41 45 47 48 49 55 57 55 56 58 64 72 78 84 93 98 93 89 87 84 90 82 75 68 62 59 58 56 56 52 52 50 45 46 49 48 40 47 46 48 51 52 43
24 28 31 35 39 42 44 45 48 50 50 53 53 56 63 70 75 81 90 97 95 92 92 87 84 83 76 72 65 61 59 58 55 50 50 49 49 51 52 50 47 48 49 48 53 51 46

GFSGBSN_250_spd_060.txt.gz
Wind_Speed
70 70 68 72 70 69 69 69 63 64 67 68 68 56 53 53 50 46 45 35 38 42 45 46 47 46 45 49 47 46 46 45 47 48 48 55 58 58 64 70 72 55 51 40 26 21 15
76 71 74 78 77 76 70 70 73 67 68 72 73 73 62 59 56 50 46 44 35 39 43 44 44 45 46 44 43 41 43 43 45 48 49 52 54 56 62 67 68 52 47 34 20 14 11
82 81 81 76 78 80 78 74 75 70 72 75 73 77 77 70 63 54 51 50 49 40 44 43 42 43 46 39 41 40 40 42 45 46 48 48 53 54 60 64 63 48 43 29 12 6 4
84 87 82 81 85 84 83 82 80 76 74 75 78 75 76 76 72 58 54 55 53 55 48 43 41 42 44 39 38 39 40 42 43 42 44 46 50 53 58 60 61 44 36 24 3 7 8
91 88 87 89 88 90 89 85 80 82 79 77 79 78 76 75 79 70 60 58 57 55 47 44 45 43 43 39 38 38 39 41 42 40 41 44 47 50 55 54 56 41 30 17 3 4 4
103 103 101 100 97 97 96 94 91 87 84 85 84 83 84 84 79 75 63 67 62 53 52 49 45 44 44 42 37 36 40 39 39 37 37 40 44 48 52 50 54 36 28 11 5 2 2
107 109 109 108 107 108 105 102 98 95 94 88 88 86 86 81 82 79 70 72 67 53 54 52 43 44 45 41 36 36 38 37 32 30 33 38 41 44 48 48 52 32 27 9 6 2 5
119 118 115 116 117 110 105 104 104 102 96 97 91 91 88 90 81 79 77 70 68 58 59 55 46 47 40 36 37 38 35 32 27 25 33 36 39 41 44 46 50 32 27 16 3 6 4
109 108 110 113 109 103 101 97 97 98 98 98 97 96 95 91 87 85 76 69 70 59 60 57 50 47 40 34 36 36 30 28 24 26 33 35 37 39 40 43 46 34 27 17 6 4 7
105 107 106 104 105 106 104 101 98 97 95 97 99 103 100 93 88 85 78 74 67 61 63 55 52 47 41 35 35 32 31 29 24 27 33 33 35 38 37 41 42 34 25 21 5 7 9
94 95 96 97 98 99 100 103 104 101 99 98 98 98 96 89 86 84 82 75 71 69 67 57 52 47 46 36 37 33 31 28 27 29 33 34 34 38 34 37 37 41 22 22 12 10 13
90 90 89 90 93 95 94 96 98 103 103 100 98 97 91 86 84 82 79 76 76 75 67 55 55 51 48 41 40 37 33 32 29 30 34 33 35 35 31 33 36 39 27 19 16 14 15
87 87 86 87 89 89 91 94 94 96 99 101 99 100 95 90 90 88 83 79 75 69 65 58 57 56 48 44 42 40 39 36 30 30 33 34 36 33 28 30 33 35 31 17 16 17 17
80 80 81 83 83 85 87 88 92 94 94 94 102 100 99 96 98 91 85 78 71 68 66 61 61 55 50 49 46 46 42 36 32 34 34 35 35 28 27 29 30 30 35 21 16 14 20
72 74 76 78 81 82 83 85 86 91 92 93 95 100 97 96 99 94 88 74 65 68 69 66 64 58 55 53 52 50 43 40 35 36 36 37 35 28 26 28 31 31 33 25 19 19 21
71 73 74 75 76 77 80 82 84 87 91 92 92 92 96 101 102 98 91 69 69 70 73 70 68 64 56 55 54 48 46 40 40 40 39 37 35 30 28 29 32 32 31 31 22 20 22
70 73 75 76 76 76 76 77 80 84 88 91 92 90 89 98 105 101 79 65 71 74 75 74 72 68 61 56 54 52 46 44 45 43 42 40 35 30 29 30 32 33 31 30 30 23 20
67 67 68 70 73 74 75 75 77 78 85 87 90 86 90 100 102 84 74 68 75 76 74 76 75 71 66 62 59 56 51 54 51 45 44 40 36 30 30 31 32 32 31 30 34 32 21
65 65 66 67 69 73 73 76 75 77 78 83 85 86 94 102 94 78 76 75 79 80 76 77 77 73 69 66 63 60 57 55 51 47 43 43 36 32 32 34 32 32 32 33 32 32 26
65 66 65 65 65 68 73 74 73 76 77 78 83 85 96 91 80 78 81 79 82 83 80 76 75 74 72 67 62 61 60 56 53 50 45 43 38 34 35 37 33 31 33 35 34 33 32
57 60 60 63 64 64 67 70 70 73 75 75 75 75 85 80 77 75 76 78 84 88 82 79 77 73 71 68 66 64 60 57 55 53 48 44 38 38 39 37 33 33 37 36 34 34 32
50 52 55 57 58 61 64 66 67 69 71 67 65 70 77 78 78 75 79 79 84 89 85 78 77 78 74 71 68 66 62 59 56 54 48 44 40 40 39 38 37 35 39 38 36 36 36
47 47 49 50 52 56 60 63 66 67 62 54 60 69 73 75 76 77 79 82 85 90 89 83 82 82 77 74 72 66 62 60 57 54 50 45 42 42 42 40 36 38 40 39 38 37 36
38 40 43 46 48 52 54 58 62 58 48 54 62 68 69 67 73 74 79 87 92 89 90 87 83 80 77 77 71 70 63 60 57 55 50 46 43 43 41 40 35 42 41 43 38 37 39
31 34 38 40 44 47 49 52 54 50 51 53 60 66 66 69 80 81 81 90 97 97 96 89 86 84 85 80 71 69 65 59 56 55 52 49 47 44 40 41 38 39 45 44 43 40 46
25 30 33 36 39 42 44 47 50 48 51 54 60 64 62 69 79 81 85 90 95 95 97 92 89 87 85 78 73 67 62 59 57 54 52 50 48 44 42 43 37 42 45 47 49 45 48
20 26 30 33 36 39 42 46 46 48 53 57 61 61 60 68 72 77 81 88 94 97 97 96 92 90 86 81 74 68 63 60 57 53 53 50 49 43 45 41 37 43 47 48 47 52 46
16 22 26 30 34 38 41 44 47 51 55 59 59 58 58 67 71 78 84 87 95 99 99 94 97 93 87 80 73 68 63 60 57 56 53 53 49 45 44 41 35 46 48 48 49 51 47
17 22 25 28 32 38 41 45 48 52 56 57 55 56 57 62 68 76 84 91 94 99 99 96 91 93 85 80 75 71 68 63 60 58 55 50 47 45 43 41 45 48 51 50 48 44 43

GFSGBSN_250_spd_063.txt.gz
Wind_Speed
74 71 65 69 72 71 69 71 69 70 68 64 66 66 63 59 60 57 56 51 52 42 41 34 32 33 38 38 36 35 37 41 40 39 43 46 49 51 54 55 54 62 64 57 49 37 27
73 68 65 67 67 70 72 68 70 67 67 71 72 67 67 64 61 62 61 56 57 49 49 38 41 34 43 41 36 37 40 39 36 40 43 45 47 51 52 53 52 61 62 52 43 29 18
80 81 75 76 74 73 77 77 76 77 73 71 73 74 70 68 65 65 67 67 66 63 57 46 44 46 40 46 39 34 34 32 36 41 44 43 44 48 50 49 53 58 59 45 36 21 9
86 88 86 79 81 83 84 78 79 81 80 82 79 75 75 71 68 66 68 65 73 70 68 56 48 46 47 44 40 37 33 33 37 39 39 41 43 45 44 47 51 54 55 39 26 13 7
83 84 82 83 83 82 83 82 80 82 82 81 82 81 79 76 71 68 70 64 66 68 70 68 58 52 49 44 43 37 34 37 38 38 39 41 41 37 40 45 47 51 50 35 25 10 4
93 94 94 93 92 93 90 88 88 88 88 91 88 85 78 78 76 74 72 70 70 68 66 64 61 55 55 46 44 39 39 40 37 37 39 41 34 35 38 43 46 48 44 32 26 7 2
101 102 105 102 100 102 99 99 99 99 97 92 93 93 87 84 80 77 75 79 76 73 72 70 56 58 54 50 45 38 40 39 35 38 39 34 30 34 38 40 44 43 43 26 21 9 8
108 109 108 103 104 103 105 103 102 100 101 101 102 101 97 93 91 86 81 78 79 75 72 69 68 58 54 44 46 41 38 37 37 38 37 31 28 33 37 39 42 41 42 26 17 11 11
108 110 111 112 113 111 112 113 110 111 109 105 106 106 104 103 98 93 89 88 79 78 72 67 61 58 58 44 43 44 36 38 39 36 32 28 27 33 36 37 41 40 41 29 17 12 13
110 110 111 112 112 111 111 108 109 110 109 108 108 111 109 104 102 100 95 95 89 82 77 69 67 57 57 46 40 45 39 37 37 35 29 28 28 33 32 36 40 36 38 30 18 13 14
104 104 105 106 106 103 102 101 100 96 99 102 101 105 105 107 99 92 97 97 92 89 82 75 65 60 62 51 49 44 43 37 38 31 29 27 29 32 33 35 38 31 31 36 15 12 16
97 95 94 95 92 92 93 93 95 92 91 93 96 97 96 95 91 93 92 98 97 95 85 78 66 65 62 54 46 49 44 40 35 31 32 29 29 32 33 34 34 29 31 33 24 13 14
88 86 86 85 86 86 87 87 85 88 90 90 89 89 95 98 98 95 93 97 99 95 85 79 70 65 63 55 49 48 46 43 37 37 36 31 29 34 32 34 31 27 28 33 31 15 13
86 85 85 85 84 84 84 84 84 85 87 88 88 87 86 90 100 101 98 99 95 82 83 76 68 67 65 57 52 51 48 46 42 38 42 35 31 36 33 35 29 27 30 30 32 20 16
81 82 82 82 82 81 81 82 83 85 86 87 86 84 83 87 93 99 104 103 82 79 82 75 68 65 64 61 54 53 50 47 46 46 46 39 33 37 35 35 30 26 28 28 28 28 19
78 78 79 79 79 79 80 81 82 83 84 86 86 83 81 87 94 97 99 87 81 79 78 74 67 65 63 60 59 54 56 50 47 50 51 40 35 40 37 35 31 24 27 27 26 27 28
75 75 75 74 74 74 75 76 78 80 82 85 83 82 85 87 97 97 86 69 81 81 78 72 71 68 64 61 61 59 54 53 52 55 51 43 38 42 41 36 31 25 27 28 28 28 32
72 73 73 74 75 74 75 76 76 75 78 81 82 79 87 90 93 86 70 67 79 83 81 75 73 68 65 65 62 61 56 58 60 61 52 43 41 38 42 37 32 27 27 30 30 30 31
67 68 68 69 71 71 73 75 76 77 76 78 76 77 87 90 81 77 64 69 77 84 79 76 76 71 68 69 67 61 60 56 63 61 51 45 42 43 44 41 34 27 30 31 31 31 32
65 64 64 66 66 68 70 73 76 76 77 76 73 72 79 75 78 75 69 71 77 80 78 77 75 73 71 74 73 66 64 57 58 59 55 48 48 48 47 42 33 29 33 33 31 32 33
61 62 61 62 65 66 67 71 74 76 75 77 67 63 63 62 70 76 70 72 76 78 80 78 77 74 72 75 78 75 66 64 59 57 58 52 50 53 50 41 32 33 37 36 33 33 33
59 59 61 62 63 64 64 66 68 70 72 73 53 54 57 61 72 73 71 73 80 81 82 77 76 79 77 74 79 79 74 73 70 65 65 57 52 53 50 43 34 35 39 38 35 35 33
51 51 52 55 59 61 63 66 69 67 69 59 44 56 59 62 69 62 68 75 81 83 82 82 86 82 78 78 78 79 76 75 70 72 66 60 55 54 48 46 38 34 43 39 39 37 35
46 46 48 50 54 56 59 61 63 64 56 47 49 58 59 61 65 65 72 80 81 85 85 87 90 88 83 80 77 77 74 73 71 70 67 61 58 55 50 47 39 45 42 41 40 37 37
40 40 41 44 46 49 51 55 57 56 54 49 52 54 57 61 64 58 69 77 86 95 99 96 93 90 87 83 83 77 73 73 72 70 66 62 59 55 51 47 42 43 45 44 41 40 42
31 33 35 38 40 43 46 48 50 52 50 50 54 55 61 62 61 65 72 82 89 94 94 98 100 93 87 87 83 78 74 68 70 70 68 64 61 56 51 47 42 47 50 48 44 40 44
23 26 29 32 35 38 41 44 46 48 49 53 54 58 60 59 63 62 69 81 88 95 97 98 97 92 94 91 85 80 75 72 68 66 66 63 61 56 52 47 46 48 52 51 41 50 43
18 22 24 27 32 36 40 43 45 47 49 54 56 59 59 60 60 58 70 79 87 94 99 96 100 99 97 94 85 80 75 70 70 66 64 63 61 56 53 48 45 50 56 48 48 48 49
14 18 21 25 30 34 37 40 43 47 54 58 59 57 60 61 56 60 70 78 85 91 99 103 98 97 94 93 88 83 77 73 67 66 66 63 59 56 50 47 49 52 52 51 50 53 48

GFSGBSN_250_spd_066.txt.gz
Wind_Speed
76 76 76 70 73 70 72 74 72 68 67 70 71 70 68 64 66 66 61 61 59 58 52 49 50 49 46 39 41 32 31 33 37 36 39 38 35 42 46 44 46 51 50 56 62 53 36
80 81 83 81 79 79 75 71 74 72 66 69 73 71 68 70 66 67 66 64 62 58 56 57 55 53 49 44 43 43 41 38 36 37 34 29 38 42 43 43 47 47 49 54 59 48 30
81 85 88 86 85 79 75 76 76 73 70 68 68 73 71 69 69 63 67 66 66 64 60 59 63 57 54 62 52 47 47 44 34 35 31 31 40 41 40 44 45 43 48 51 54 39 14
84 87 85 87 86 79 79 80 80 77 75 75 73 74 76 72 70 73 68 68 65 68 63 60 58 61 61 65 56 58 56 50 44 32 30 36 41 39 41 44 40 42 45 48 54 34 9
94 96 92 88 86 84 83 84 83 86 86 86 79 82 79 75 77 75 77 71 72 67 66 62 60 52 53 60 56 58 56 58 52 39 32 39 41 37 39 43 35 41 45 50 51 36 16
87 88 91 87 92 91 89 87 85 84 80 81 80 78 77 78 78 77 77 75 73 74 69 64 60 54 55 54 57 54 53 52 50 40 33 39 38 38 41 38 35 39 42 49 45 30 15
83 81 87 87 86 87 88 89 87 88 90 89 88 85 84 85 79 79 81 80 80 74 68 71 64 62 57 60 56 46 45 47 49 48 43 39 39 37 39 33 32 39 42 46 42 25 16
90 92 95 99 96 97 96 99 97 97 100 100 99 101 96 97 90 85 86 86 89 82 72 68 66 61 67 59 56 52 45 47 38 41 41 36 38 38 35 30 34 37 38 43 40 30 14
91 94 99 99 106 104 108 104 106 109 108 106 103 103 104 98 99 98 95 95 94 88 84 73 72 64 69 59 54 50 44 47 38 39 37 37 40 36 31 28 34 35 38 37 34 33 18
97 100 105 106 108 108 109 114 116 114 111 108 106 105 104 101 99 100 100 104 99 96 92 79 82 72 69 64 55 59 49 45 38 39 39 37 37 37 28 30 32 35 37 34 33 32 19
98 101 103 105 109 114 115 116 117 114 109 109 108 108 105 105 107 106 108 107 105 104 103 91 83 78 76 67 64 61 53 45 38 41 36 39 39 33 26 29 33 33 35 35 33 33 20
94 94 96 98 99 101 103 102 102 103 103 102 103 106 104 102 107 108 110 107 109 109 99 96 88 83 79 75 73 67 54 47 45 40 37 41 37 34 27 29 34 32 33 33 29 28 25
91 92 93 94 95 95 96 96 96 96 97 97 96 97 94 91 91 99 99 100 105 104 87 90 88 86 84 81 77 70 61 50 44 42 43 42 38 33 29 28 34 32 34 32 24 25 25
88 88 88 89 91 92 91 91 91 91 91 91 90 89 87 86 90 95 95 96 98 81 81 80 82 80 80 80 76 73 64 53 43 45 47 43 38 36 35 31 33 34 35 30 23 26 27
83 83 83 84 84 83 83 83 83 83 84 84 84 83 83 85 89 92 92 93 82 67 77 80 76 75 79 79 74 72 66 52 48 49 46 46 41 40 38 32 34 32 34 30 21 21 24
76 76 77 78 78 78 78 78 79 79 78 79 78 77 77 82 85 89 90 81 64 66 78 81 75 73 77 78 76 74 66 55 53 51 50 47 50 40 40 35 35 34 36 31 24 22 22
74 74 75 75 75 75 75 76 76 76 76 77 75 73 76 80 82 80 79 64 60 66 73 82 78 74 75 77 76 72 65 59 55 51 54 52 51 46 44 41 37 38 38 33 27 22 20
73 72 72 72 71 71 72 72 73 74 75 73 73 72 76 79 74 71 68 68 66 70 75 79 80 80 74 77 77 71 62 59 58 55 56 53 51 49 45 46 36 41 39 35 30 24 20
67 67 68 68 68 69 69 70 71 72 72 71 68 69 72 75 63 63 67 70 65 74 80 75 76 80 77 76 75 69 62 65 63 59 52 58 56 52 47 42 35 41 39 40 32 26 26
65 65 66 66 68 68 68 69 71 73 74 75 71 69 67 62 55 59 64 66 64 72 78 76 75 79 82 80 73 67 66 67 67 57 56 61 61 51 47 49 44 41 43 42 34 31 32
65 64 65 66 66 67 68 70 70 72 74 77 70 58 60 57 52 54 62 63 61 71 76 80 75 74 78 80 74 69 69 65 68 63 59 59 56 57 53 48 43 44 45 45 36 32 34
60 59 60 61 63 64 66 68 69 73 75 78 65 56 57 53 61 60 59 53 62 75 78 79 76 72 78 83 75 76 74 67 70 66 62 63 55 59 60 52 46 45 48 44 39 36 36
55 58 59 60 61 63 64 67 70 72 74 75 58 59 53 54 56 58 57 56 65 75 77 79 77 79 79 81 82 76 69 67 73 68 66 61 61 60 50 54 54 48 48 46 41 39 37
51 52 53 53 57 60 61 63 65 68 70 60 53 57 55 59 57 50 61 59 62 72 80 80 86 83 76 85 78 76 76 75 80 71 71 65 58 59 57 58 49 49 51 47 44 42 41
45 46 48 50 53 55 58 60 59 61 63 54 54 57 50 51 55 58 61 59 62 74 77 82 84 76 84 81 83 87 79 79 84 76 68 70 58 53 60 59 56 53 54 50 47 43 43
43 43 43 44 47 51 54 57 58 60 57 52 54 52 50 54 55 59 59 60 65 67 80 79 83 91 85 87 87 87 78 76 84 79 72 72 71 62 59 58 54 54 56 51 48 40 48
35 34 36 37 38 43 48 51 54 55 53 52 52 51 51 51 59 61 59 61 65 71 79 83 86 92 85 92 90 83 77 77 79 79 78 73 70 68 66 63 60 56 57 57 49 49 52
24 26 28 29 32 36 39 43 47 49 50 52 49 51 52 54 59 60 62 63 68 71 77 78 90 85 82 91 89 79 77 73 73 75 77 78 76 73 72 69 60 57 58 55 54 59 52
15 18 20 22 27 32 34 37 40 45 48 50 51 53 56 59 61 59 62 65 67 74 79 86 83 86 81 87 84 81 79 77 74 75 75 71 71 70 68 61 59 60 62 63 61 57 55

GFSGBSN_250_spd_069.txt.gz
Wind_Speed
79 76 69 69 71 68 67 69 70 74 74 71 70 71 72 74 72 68 68 68 64 61 60 60 57 58 52 48 55 44 46 40 39 38 36 38 35 35 33 32 37 39 42 47 45 48 47
82 80 75 75 75 72 71 75 72 69 69 73 73 74 73 75 75 68 67 67 69 66 65 63 59 56 53 55 55 51 52 50 49 47 44 37 40 32 35 31 39 39 41 43 42 45 45
84 82 79 75 76 76 80 82 84 82 81 83 79 80 73 69 71 69 68 68 70 72 70 67 63 60 54 61 54 53 57 55 51 47 49 47 49 42 33 34 39 38 42 40 41 46 45
89 86 83 79 78 79 83 84 83 83 84 84 87 81 74 75 71 72 67 65 69 68 70 66 60 57 54 64 57 51 50 56 54 43 47 47 46 43 35 37 38 37 39 38 39 46 46
90 86 86 80 82 84 89 87 86 87 87 89 86 84 77 77 76 75 76 68 72 69 69 68 66 58 58 61 59 54 48 44 44 45 45 46 47 45 39 39 38 38 37 35 43 44 41
84 82 84 83 87 87 89 91 93 94 92 89 84 87 86 77 79 83 80 81 77 76 71 72 67 64 57 56 58 56 49 44 43 45 48 44 40 43 42 42 37 34 32 34 35 43 39
79 80 77 82 84 87 92 87 86 90 96 95 84 84 88 87 87 78 82 84 87 82 69 66 67 70 61 59 58 60 54 46 46 49 45 39 32 44 43 39 33 33 29 37 36 41 41
80 78 83 85 86 89 89 89 88 86 87 89 95 87 88 88 84 86 87 79 84 82 75 72 69 68 69 63 56 59 60 51 50 48 41 36 34 39 41 36 33 33 32 35 36 38 38
83 83 85 88 90 91 89 92 95 92 88 90 91 91 89 88 88 91 90 93 95 86 81 73 75 71 74 72 57 61 60 58 54 47 43 37 40 33 38 31 29 30 30 35 34 38 34
78 83 84 88 90 94 98 99 100 99 100 98 100 97 98 94 97 99 99 102 102 100 96 84 88 75 75 74 67 69 63 60 57 49 43 37 37 30 33 30 32 28 30 35 33 35 35
82 83 85 88 92 95 99 102 106 105 106 106 106 105 104 104 104 105 109 106 107 108 104 92 91 84 83 79 72 76 76 66 58 55 48 41 37 31 29 32 31 27 28 34 28 33 33
84 86 89 91 92 94 95 98 101 104 106 108 110 112 112 108 109 116 112 112 115 116 100 92 90 85 87 88 84 78 78 72 70 60 48 43 39 30 33 32 30 26 28 33 33 31 32
88 89 89 91 93 93 95 95 97 100 103 104 107 109 108 109 115 112 112 113 116 111 93 89 88 85 87 85 86 87 82 77 72 67 58 53 43 35 37 36 33 29 27 31 34 30 32
88 88 87 87 88 89 91 92 93 94 95 94 94 97 97 96 105 102 103 104 104 88 82 84 90 87 87 83 83 84 85 81 75 70 65 56 43 40 44 38 36 28 30 30 32 29 32
78 77 77 78 80 82 84 86 87 87 87 88 90 90 89 90 95 91 90 90 86 75 75 83 91 87 88 83 80 82 80 78 77 76 70 63 49 50 44 41 37 30 34 31 31 32 32
76 76 77 77 78 79 80 81 82 84 84 85 87 86 85 88 86 83 77 77 83 74 70 82 90 76 75 75 74 75 77 70 70 73 70 63 53 52 47 46 42 30 33 33 34 32 32
72 72 73 74 75 75 76 77 78 78 78 80 82 79 79 82 78 72 66 72 75 65 69 78 80 76 73 72 71 72 69 69 70 69 69 65 54 51 51 42 43 34 36 34 35 33 32
70 70 69 69 69 69 70 70 71 72 74 76 75 69 72 75 68 62 54 64 68 57 64 75 76 73 69 68 67 73 68 68 69 66 63 59 55 52 53 43 44 44 34 37 35 35 31
66 66 66 66 66 66 66 67 67 69 70 72 71 68 69 70 55 50 54 58 58 49 60 71 70 71 71 68 68 69 64 68 67 64 61 62 55 58 55 48 43 45 38 37 38 36 31
62 61 61 63 63 64 64 65 65 67 68 71 72 67 63 56 50 49 55 55 51 45 56 69 69 67 72 69 64 69 66 66 64 61 64 66 62 59 53 50 45 44 44 39 34 36 34
59 60 61 62 62 64 64 64 65 66 68 73 71 58 57 48 45 54 54 52 49 49 55 67 68 65 65 67 64 69 72 71 66 65 64 63 60 59 53 52 51 48 44 41 36 42 38
60 60 60 61 62 62 61 62 63 64 67 72 63 51 53 50 51 54 53 49 47 51 55 64 68 66 66 67 65 70 78 76 70 67 64 64 62 63 57 55 53 50 46 43 40 41 41
53 52 53 54 54 54 55 57 59 63 67 67 56 48 46 41 46 50 45 50 54 47 53 61 70 70 67 67 71 70 78 78 73 66 60 63 64 67 62 57 59 50 44 44 45 43 46
50 51 53 54 56 57 58 58 59 62 66 67 55 52 45 45 47 41 52 52 52 51 59 62 63 60 58 76 74 69 74 77 75 66 65 69 68 69 60 62 52 43 50 50 51 47 42
49 51 53 56 58 59 60 60 62 64 67 68 56 53 48 46 48 51 53 56 56 59 59 57 56 61 80 74 73 74 79 79 78 74 68 73 71 72 67 59 55 50 51 49 49 50 48
44 46 48 50 51 54 56 58 60 62 65 65 51 58 51 45 49 57 64 63 58 59 62 54 59 67 76 73 79 81 75 76 79 73 71 74 70 73 66 61 53 51 53 51 51 47 50
38 39 40 41 44 48 51 54 56 59 59 56 53 53 46 42 54 60 58 61 63 66 61 62 65 71 71 75 77 75 68 72 75 70 73 71 73 71 65 60 59 54 59 60 55 52 60
30 30 30 31 33 38 42 45 51 55 55 54 52 48 44 45 54 55 61 61 64 63 60 64 72 66 65 73 74 75 71 72 72 72 75 73 76 73 69 64 55 55 58 53 53 56 59
23 23 23 23 24 28 34 40 44 48 49 47 50 47 47 49 51 55 58 61 60 60 61 65 60 63 65 71 70 74 72 75 74 72 75 72 68 75 72 62 62 64 67 63 61 60 60